GFSSGP_925_spd_000.txt.gz
Wind_Speed
7 1 2 3 2 3 4 5 3 14 6 9 12 10 10 7 2 6 15 22 30 26 23 21 21 21 20 19 19 18 16 15 14 13 13 12 11 11 11 11 12 12 12 12 12 12 12 12 10
2 3 4 2 3 2 3 1 17 15 9 9 14 14 14 7 6 12 14 25 28 27 24 22 21 20 20 20 19 17 16 15 14 13 12 10 10 10 11 12 12 12 10 11 11 11 11 10 10
2 3 3 3 2 5 2 3 19 14 11 5 6 6 5 7 12 7 25 29 27 27 24 23 21 20 20 19 18 17 16 14 13 11 11 10 10 10 11 10 10 9 9 9 10 10 9 9 8
2 3 4 1 6 7 8 6 14 19 16 11 11 8 5 8 6 22 27 25 30 27 25 23 21 20 19 18 18 16 15 13 10 11 11 10 9 9 9 8 8 7 8 7 8 8 8 8 8
1 3 3 2 6 4 3 4 4 9 8 12 13 4 5 8 31 35 28 28 30 26 23 21 20 19 18 17 15 14 13 12 11 10 9 9 9 7 8 7 7 7 7 7 8 8 9 8 8
2 2 2 3 1 6 5 5 7 16 20 16 17 11 5 22 33 32 27 29 28 27 24 22 19 17 16 14 14 13 12 12 11 10 8 8 8 7 8 9 8 7 7 7 9 10 9 10 10
5 3 4 3 3 3 3 3 4 10 7 5 9 6 5 17 30 31 30 28 27 25 23 21 18 17 15 14 13 12 12 11 10 9 8 8 8 9 8 8 9 9 9 9 9 12 11 11 9
4 2 2 2 9 5 1 4 6 8 4 7 10 6 10 16 34 32 30 26 24 22 21 20 18 15 14 14 12 11 11 11 10 8 9 8 7 8 8 7 8 8 8 9 8 12 10 12 11
3 3 2 3 4 7 5 12 4 4 8 2 2 8 23 34 35 32 29 28 25 24 23 20 18 15 15 13 13 12 12 11 11 10 7 5 6 6 5 4 4 5 6 8 7 10 11 11 12
4 3 5 7 5 6 3 8 6 6 7 6 9 12 25 35 33 28 25 25 28 26 24 21 17 17 15 15 13 13 12 10 9 7 7 4 3 2 3 5 5 7 8 9 8 9 9 9 12
2 4 5 5 8 8 7 5 3 11 3 12 19 13 15 23 24 24 25 31 29 28 25 22 18 17 15 14 13 11 11 11 8 5 5 3 1 3 3 4 6 6 8 11 11 10 11 12 13
2 3 3 3 4 4 9 7 5 4 8 17 22 23 17 12 17 22 24 26 28 31 28 23 19 18 15 11 13 12 12 12 8 6 6 4 3 0 1 3 5 7 9 11 13 12 15 18 20
7 4 5 8 7 4 6 5 5 2 10 16 18 18 15 15 20 28 29 30 30 35 31 26 22 16 13 10 11 14 12 12 11 11 8 3 4 2 3 2 4 7 9 12 11 11 16 20 22
5 8 7 6 4 3 5 1 5 4 8 15 17 15 15 16 23 25 28 32 32 35 31 25 22 21 17 12 14 11 14 13 14 12 9 4 2 5 3 2 6 9 12 15 16 18 21 24 25
9 6 4 1 3 2 5 2 3 6 10 18 16 16 14 16 23 25 31 32 35 38 35 30 25 20 15 16 15 14 12 9 11 15 11 8 4 3 4 5 10 12 15 18 19 20 20 19 18
5 6 3 4 5 2 5 6 6 6 11 14 14 12 11 10 20 27 26 23 29 36 35 34 24 19 14 13 12 12 11 8 8 9 9 8 6 3 5 8 12 14 15 19 20 17 14 15 17
7 3 3 3 7 3 3 3 6 7 8 10 4 9 8 8 15 11 4 7 23 38 37 31 18 22 12 14 13 16 11 8 10 10 7 7 5 8 10 12 14 17 14 16 17 15 15 18 20
5 4 5 7 6 4 5 4 5 5 14 11 12 14 16 16 11 23 24 17 22 25 24 20 19 16 16 15 16 14 14 13 9 8 6 6 6 7 10 17 16 11 10 11 12 14 18 20 23
3 3 7 3 5 5 8 8 6 9 17 15 16 17 15 15 19 31 32 29 27 22 17 15 19 15 16 19 18 14 11 7 6 7 6 8 11 16 18 15 9 8 9 11 13 14 16 18 23
3 7 5 5 7 7 10 10 7 10 10 15 16 14 13 13 16 22 32 33 30 28 26 21 18 18 15 14 10 5 3 5 5 5 6 12 14 11 10 10 12 12 13 15 17 18 19 16 17
5 7 3 3 2 9 17 9 9 7 9 11 10 10 10 13 15 14 22 26 25 23 19 18 17 15 14 10 5 3 1 2 7 11 12 10 6 7 10 13 15 16 16 16 17 18 19 16 15
2 3 4 3 3 6 1 4 4 5 11 12 11 10 11 12 12 14 18 20 18 16 15 14 11 8 5 5 6 4 2 4 6 3 5 2 6 10 14 14 15 14 13 15 15 17 16 17 13
3 2 2 2 3 3 2 7 5 5 7 7 6 8 7 8 10 8 16 17 13 11 10 6 5 4 5 4 5 3 3 4 3 4 1 5 9 12 15 17 16 14 15 16 15 15 15 14 11
1 1 6 4 3 3 4 5 6 4 7 5 5 6 7 8 7 11 12 11 10 7 4 3 0 2 5 6 6 6 5 5 4 2 6 12 12 11 11 11 11 12 14 15 14 14 16 19 19
8 5 3 4 4 4 3 7 2 4 5 10 9 8 8 8 8 7 8 7 5 1 2 3 4 7 6 8 7 6 2 8 8 12 19 17 16 8 7 7 10 11 11 13 15 19 22 22 21
3 5 5 4 2 2 5 3 2 5 11 11 9 8 8 8 7 6 6 6 12 18 21 14 11 12 9 8 13 13 9 8 11 17 20 16 7 3 4 5 6 9 12 13 14 15 14 16 18
3 4 4 6 4 3 1 4 3 5 6 9 7 9 6 8 7 9 10 25 26 27 23 18 14 12 9 7 6 9 14 16 19 21 13 10 8 3 3 6 10 12 15 14 13 13 14 14 16
6 2 4 4 2 1 3 3 4 5 4 6 6 7 10 9 8 9 18 21 21 18 15 13 10 10 9 12 14 13 10 14 14 16 12 10 6 2 5 10 12 10 11 13 12 13 13 15 15
5 3 5 4 3 4 2 5 5 7 7 10 8 8 9 8 8 8 15 15 15 15 13 14 13 10 15 19 20 21 21 19 15 8 6 4 3 6 6 9 7 8 9 9 10 11 9 9 6
2 3 4 4 2 2 4 4 3 5 10 13 10 9 10 10 7 9 12 11 10 14 17 20 20 21 24 23 22 23 22 21 16 10 9 11 10 3 7 8 9 10 9 9 10 13 8 6 6

GFSSGP_925_spd_003.txt.gz
Wind_Speed
6 7 4 6 3 3 3 5 1 1 5 7 3 5 8 5 2 3 10 11 27 29 25 23 22 21 20 20 19 18 16 14 14 13 12 11 11 11 11 12 10 10 9 10 11 11 10 10 8
2 5 1 2 3 1 3 5 8 8 11 10 5 4 5 5 4 10 13 24 28 28 26 23 22 22 21 20 19 17 15 14 13 12 11 11 11 11 11 10 10 9 9 9 10 10 9 8 8
3 4 2 4 3 4 3 4 10 15 14 7 4 6 2 8 10 12 16 31 28 27 25 24 22 21 21 20 18 16 14 12 11 10 11 11 10 10 9 9 8 9 9 10 10 10 9 8 8
3 3 3 4 6 7 4 4 6 4 7 10 2 3 4 1 7 14 34 30 28 26 24 22 21 21 19 18 17 16 14 12 10 11 10 9 8 8 8 8 8 8 9 9 10 11 11 10 9
3 2 2 2 5 5 5 5 6 6 4 3 5 6 3 3 19 32 30 29 29 25 23 21 20 19 18 17 16 14 12 11 11 11 9 8 7 7 8 8 8 9 9 10 11 12 12 12 12
2 2 4 2 4 5 5 6 7 4 4 9 10 6 2 19 28 25 28 24 23 25 21 20 18 17 17 16 14 13 13 12 10 9 8 7 8 7 8 9 10 11 11 12 15 14 14 14 13
4 3 3 3 5 6 4 6 8 13 9 4 9 5 4 4 23 26 27 23 22 22 22 20 19 17 15 14 14 14 13 11 9 9 8 8 9 8 9 10 11 11 12 12 14 15 16 15 14
4 3 1 3 4 5 6 4 2 8 2 7 8 7 7 8 24 27 27 25 24 23 22 21 18 17 17 16 15 13 12 10 9 7 8 7 7 7 8 8 8 8 8 8 10 12 14 14 14
2 4 1 3 8 7 4 4 2 2 8 1 2 5 18 31 29 30 25 23 24 22 21 19 19 18 17 16 14 13 12 10 9 9 7 5 6 6 3 3 3 3 5 5 5 7 8 11 13
4 4 8 5 8 7 4 9 8 5 3 5 8 12 26 32 31 24 21 22 26 24 23 22 19 19 19 17 15 14 12 11 10 6 6 5 3 1 2 4 4 5 5 5 6 7 7 8 10
3 4 3 2 8 11 8 5 3 10 3 6 14 14 17 23 22 22 21 31 31 27 24 24 21 20 19 18 17 15 14 10 9 6 5 4 2 2 3 4 5 5 7 10 10 10 11 12 14
3 7 2 5 6 6 9 6 5 2 8 9 21 22 19 13 18 22 24 29 29 28 28 26 24 21 19 18 18 17 15 13 11 9 6 4 1 1 2 3 5 7 9 12 14 13 13 16 18
4 3 1 6 8 6 6 4 6 3 7 10 16 17 18 16 19 24 33 32 31 31 30 29 27 24 21 20 19 17 16 15 13 11 7 3 4 2 2 3 3 5 7 10 12 12 14 17 19
6 1 4 4 6 5 6 2 1 4 7 10 16 16 15 15 22 20 23 29 32 34 33 31 28 24 21 18 18 17 15 13 14 12 9 9 8 7 5 2 2 5 8 11 13 14 14 12 12
8 5 4 2 1 3 5 2 4 5 9 15 15 16 11 11 18 21 25 29 33 32 32 29 26 22 19 17 18 15 17 12 13 13 11 8 5 2 3 2 7 9 12 15 15 13 12 14 10
5 5 3 5 3 2 5 7 3 9 12 11 6 3 6 6 7 5 3 24 28 28 30 26 21 14 5 10 12 14 10 11 10 8 7 8 6 3 7 9 12 15 19 16 16 15 14 11 12
6 3 2 3 6 2 3 3 7 6 5 7 6 7 6 7 13 12 5 9 19 23 21 14 14 14 9 9 11 11 15 18 17 12 9 5 1 3 7 12 17 17 14 13 14 14 13 11 14
3 3 3 6 5 5 1 5 8 6 10 8 8 8 9 9 7 14 13 9 14 13 13 19 13 14 15 9 15 19 18 14 10 8 7 4 5 7 11 13 12 12 11 14 16 17 17 18 21
2 3 6 4 3 9 5 9 10 8 13 11 9 10 11 11 9 22 23 18 17 16 15 12 11 15 16 17 15 13 11 9 7 6 8 10 12 11 11 11 11 12 13 15 17 19 21 22 25
5 4 2 8 10 12 13 13 8 8 5 6 10 10 12 9 11 16 28 28 24 25 23 18 17 16 15 11 10 6 2 2 4 7 9 10 10 11 12 11 11 12 14 16 18 20 20 19 21
4 1 3 8 10 8 14 9 7 6 7 8 7 5 7 10 9 6 17 22 21 19 17 16 14 12 10 8 6 1 1 1 4 6 5 8 9 9 10 12 13 12 10 12 14 15 14 14 15
3 2 4 10 6 5 4 3 1 3 4 4 4 6 7 7 7 8 15 17 18 16 13 11 9 8 8 7 6 6 5 6 5 4 6 8 9 10 12 14 11 8 9 12 15 13 12 11 14
3 2 2 4 4 5 4 5 3 5 3 4 5 5 6 5 8 7 16 17 13 11 9 7 5 3 3 5 8 7 4 3 2 5 10 16 13 12 12 14 11 9 7 11 12 9 9 10 11
3 4 6 4 3 3 2 5 5 8 7 5 3 4 5 7 6 10 14 10 9 6 4 4 4 6 5 5 6 6 5 1 7 9 16 22 20 24 20 15 5 3 9 10 8 8 11 12 10
5 5 3 3 3 4 2 2 6 13 10 8 11 8 8 8 6 6 11 13 13 11 6 5 4 7 5 3 3 2 7 8 2 10 22 27 28 26 18 10 3 6 8 6 7 8 8 9 8
3 4 5 5 3 2 4 0 3 5 9 11 7 10 5 4 7 8 15 18 17 17 15 13 13 12 12 11 10 7 10 13 16 18 21 22 23 20 13 7 3 8 3 7 7 6 7 7 9
1 4 3 6 3 3 3 3 5 5 6 8 10 6 6 7 7 10 19 18 15 14 14 13 12 11 10 11 12 13 15 17 17 21 24 19 14 9 7 4 6 7 10 6 7 7 8 9 10
5 4 4 4 3 1 2 3 4 8 10 5 5 9 8 8 8 8 13 12 13 13 13 13 13 15 14 14 14 16 18 18 22 25 24 16 11 9 7 9 14 7 10 11 9 10 11 12 15
4 2 6 5 3 4 2 5 5 10 8 7 8 10 10 8 7 7 10 11 12 15 17 17 14 12 13 15 17 18 19 22 24 25 23 17 12 6 3 5 7 12 10 9 11 12 16 16 12
1 3 4 4 3 1 4 5 4 7 9 12 11 9 7 6 6 8 9 11 15 14 15 14 12 12 13 15 18 20 22 25 26 26 16 6 3 1 1 6 13 11 9 12 13 15 14 9 10

GFSSGP_925_spd_006.txt.gz
Wind_Speed
3 3 4 2 3 5 2 5 1 3 4 1 8 6 6 1 1 1 12 12 21 26 26 25 24 24 23 22 21 19 17 15 15 13 11 11 11 11 11 10 10 12 13 13 13 12 11 10 10
4 1 0 2 4 2 4 3 4 9 7 6 9 7 10 3 3 8 11 16 25 26 25 24 23 24 23 22 20 17 16 15 14 12 10 11 10 10 10 11 11 11 12 13 12 12 11 11 11
3 3 3 4 3 4 4 3 14 6 6 4 6 6 1 2 4 10 9 24 27 25 24 24 23 23 22 21 19 17 15 14 13 11 11 10 9 9 10 10 10 10 12 12 12 12 11 11 12
5 4 3 4 5 6 4 7 9 4 2 9 8 6 1 5 5 8 23 26 25 23 22 22 22 22 21 20 18 16 14 13 11 11 10 9 8 9 10 10 10 11 12 12 12 12 12 12 12
3 3 3 1 5 5 4 10 7 5 1 13 6 5 2 4 10 26 28 25 25 21 21 21 21 21 20 18 17 16 14 12 12 10 9 8 8 9 10 10 11 13 14 15 15 15 15 15 15
3 3 3 2 4 4 3 6 8 5 3 4 4 3 2 15 23 23 25 24 25 24 22 20 19 19 18 17 16 15 13 12 11 9 8 7 8 10 11 11 12 14 14 16 16 16 16 16 15
5 4 3 3 2 4 3 5 6 6 7 2 5 4 2 6 18 23 24 21 22 21 21 20 19 17 17 16 15 13 12 11 10 9 8 8 9 10 11 11 11 12 12 12 14 15 16 16 16
4 4 3 3 3 3 2 3 2 7 3 3 6 6 7 7 22 25 20 19 18 18 18 18 18 18 17 15 14 14 13 11 9 8 9 9 9 8 8 8 8 8 8 7 9 10 13 14 15
3 4 0 4 3 3 4 3 2 2 6 4 4 5 12 26 24 21 20 18 18 18 18 19 19 19 17 17 15 14 12 11 11 10 9 8 8 7 7 4 4 5 5 4 4 5 6 8 10
4 3 8 5 4 9 12 5 7 5 3 4 4 10 23 25 24 22 20 18 17 19 21 21 19 18 18 16 16 15 14 13 12 11 9 8 7 4 3 3 2 3 3 5 7 7 7 8 11
3 4 6 3 4 9 8 3 2 10 2 5 12 12 14 18 17 20 19 24 30 27 23 21 19 18 18 17 16 16 15 14 11 9 9 7 5 3 3 3 2 4 5 7 8 8 8 10 12
1 6 5 6 9 5 9 5 4 2 3 8 16 20 16 12 16 19 20 28 27 26 24 22 19 17 16 16 16 15 14 13 11 9 7 5 3 2 3 1 2 3 4 6 9 10 11 12 14
4 3 3 5 7 6 9 5 6 2 6 10 12 15 14 13 14 16 23 27 24 24 24 22 19 18 17 15 14 13 12 10 8 7 6 5 4 3 2 0 2 4 6 8 10 12 12 12 12
6 3 3 4 6 5 8 3 2 1 6 10 14 14 10 13 16 16 15 21 22 22 22 20 19 15 13 10 9 10 10 9 9 9 6 5 4 4 3 1 2 6 10 13 15 14 11 9 10
4 5 5 6 3 4 7 4 1 2 6 11 11 6 6 6 4 7 13 21 23 22 20 20 19 15 11 5 7 10 12 13 15 11 8 5 2 2 3 1 5 9 13 13 10 8 7 8 8
6 6 4 3 2 3 5 4 8 5 10 7 6 6 7 6 4 1 4 14 16 16 16 14 16 14 9 8 5 3 15 9 4 7 9 8 6 4 5 8 11 12 10 8 8 8 9 9 12
6 3 2 1 3 3 5 2 8 8 7 6 6 7 7 6 9 6 3 4 13 12 11 13 14 12 11 6 9 5 6 12 11 9 7 7 7 10 13 13 11 9 8 9 10 11 13 12 14
5 3 1 4 1 12 8 5 7 9 8 6 7 7 7 7 7 10 6 7 10 12 16 20 19 15 9 6 12 13 13 11 7 7 6 8 9 9 9 9 9 8 9 10 11 12 13 14 17
4 4 3 3 4 8 5 6 8 8 8 8 7 7 7 7 5 13 17 20 20 22 22 18 14 14 18 21 15 10 6 3 2 5 6 7 7 7 7 8 9 10 11 11 12 14 16 18 19
5 6 4 3 4 9 8 9 6 8 4 4 6 7 7 6 6 15 23 28 27 23 18 18 21 20 18 12 6 1 2 4 4 5 7 7 8 9 10 11 13 13 12 11 12 15 17 12 14
4 5 3 5 10 6 6 6 6 5 5 5 5 3 3 5 7 8 16 23 25 24 23 21 19 16 10 9 8 5 3 2 1 3 6 8 8 9 11 14 17 15 10 7 9 13 16 9 8
3 1 5 8 4 4 2 2 1 1 2 3 0 2 3 7 5 9 14 17 20 19 17 15 13 11 9 6 5 3 2 0 1 3 7 10 14 16 19 23 16 12 5 7 10 9 10 8 8
3 6 6 3 5 5 4 5 3 4 4 6 6 5 4 1 4 7 12 11 11 11 11 9 8 7 4 3 3 3 0 1 4 6 7 18 24 23 20 20 18 10 4 5 4 5 7 8 6
4 6 6 4 3 2 4 5 4 7 8 5 4 6 6 5 2 12 12 12 7 8 8 7 6 8 7 7 9 9 7 4 1 5 11 18 22 23 24 17 7 1 6 8 9 10 9 6 6
6 5 3 3 3 4 1 3 6 11 7 9 10 9 6 4 3 3 5 17 12 14 12 12 14 19 19 19 18 15 13 10 11 15 16 23 27 23 26 11 2 4 8 10 11 10 6 5 5
3 5 5 6 3 3 3 4 5 6 8 9 7 4 7 6 5 5 9 19 18 18 17 17 18 18 16 15 14 12 10 12 15 18 22 26 26 24 20 9 6 6 9 9 7 7 7 7 9
2 3 3 6 3 3 3 4 3 4 5 6 7 7 7 7 7 7 12 17 17 17 17 16 15 14 14 14 15 16 16 16 18 21 23 26 24 22 12 10 3 15 5 8 11 12 10 10 12
2 5 3 3 3 2 3 4 4 5 9 7 7 8 7 7 7 6 11 15 17 18 18 15 15 14 13 14 15 16 17 19 20 22 25 26 21 10 8 4 7 4 6 12 14 11 11 14 14
2 2 6 5 3 4 1 5 5 9 11 10 8 7 10 8 7 6 11 14 17 17 16 15 10 9 10 11 13 15 15 17 21 24 24 22 16 9 10 8 11 10 13 11 11 12 14 15 14
1 3 4 4 3 1 3 5 4 8 8 9 9 7 6 7 6 8 12 14 14 14 12 11 6 5 6 9 10 11 13 16 20 22 21 18 11 12 12 13 12 17 14 11 12 13 15 14 13

GFSSGP_925_spd_009.txt.gz
Wind_Speed
3 3 3 2 3 1 1 3 2 7 5 9 7 9 8 10 4 2 7 13 28 23 20 22 22 24 24 23 22 20 18 17 16 14 12 12 11 9 9 11 11 12 13 13 13 13 13 13 13
2 4 3 2 3 2 1 2 9 12 13 9 9 8 9 4 3 2 8 12 27 25 21 22 22 23 23 21 20 19 17 16 15 13 12 12 10 9 11 10 10 11 11 11 12 12 12 13 13
4 4 1 2 2 4 1 6 18 18 13 8 4 3 3 2 1 4 5 16 25 24 24 24 22 22 22 20 18 17 16 15 14 13 12 11 10 10 11 10 10 11 11 11 12 12 12 13 14
4 2 2 2 4 4 4 15 15 14 5 5 12 3 3 4 12 14 15 20 22 23 23 23 22 22 21 19 17 16 15 13 13 12 11 10 10 11 10 10 10 12 13 13 14 14 14 15 15
3 1 2 2 2 2 3 16 10 5 7 6 3 9 5 3 8 18 20 21 24 19 20 21 21 21 20 18 15 15 14 12 12 11 10 9 10 11 10 11 12 13 16 15 16 16 16 15 15
2 0 1 2 2 1 2 9 10 10 9 1 4 6 3 9 17 21 21 21 22 22 21 20 19 19 17 16 15 14 13 13 12 11 9 10 11 11 11 11 12 12 14 14 16 15 15 15 15
2 2 3 2 0 4 3 13 8 9 12 6 7 3 4 9 15 20 22 20 18 19 20 19 19 18 16 15 15 14 14 12 11 10 9 11 12 11 10 10 10 10 10 11 13 13 13 13 13
3 1 4 1 7 6 5 6 9 5 1 7 3 5 6 11 18 18 17 18 17 17 18 17 16 16 16 15 13 13 12 11 10 9 9 11 11 11 9 7 7 6 7 6 7 7 8 8 9
3 1 3 6 7 2 4 11 5 1 9 4 3 4 12 23 21 18 19 17 18 18 17 15 15 16 17 15 14 11 11 9 8 9 9 9 9 8 6 4 4 3 3 3 3 4 5 5 7
2 2 6 1 18 7 3 7 6 4 5 3 6 10 24 23 21 19 17 16 17 16 15 15 16 17 15 14 12 11 10 8 7 8 8 7 6 4 3 1 1 1 1 4 6 6 6 8 9
3 2 5 7 8 15 16 5 2 11 4 4 11 17 19 19 19 18 17 17 16 13 15 18 16 14 13 10 9 7 6 6 5 5 5 4 3 2 2 1 1 2 3 4 6 7 8 9 11
2 5 2 3 7 5 8 9 5 3 1 3 15 21 19 17 19 20 18 15 15 15 15 16 14 12 11 7 5 2 2 2 3 2 4 5 5 4 3 1 1 2 4 6 8 10 12 12 11
4 3 3 3 6 8 7 5 6 2 3 13 16 17 16 15 14 11 10 11 13 15 16 14 12 11 10 7 6 3 3 7 7 6 7 8 6 4 3 2 0 3 5 8 10 11 10 9 8
3 4 4 3 6 4 7 3 3 4 7 13 16 13 9 10 12 10 10 11 15 13 14 12 12 11 11 8 7 7 5 9 10 11 9 9 7 4 2 1 3 5 9 11 11 9 6 5 5
4 6 5 5 3 4 3 5 5 8 3 12 11 8 9 8 8 9 8 10 11 10 9 13 13 11 10 9 14 12 11 17 25 16 9 8 3 3 3 3 6 9 10 8 6 5 4 3 4
3 4 4 1 2 4 2 3 6 13 5 9 10 8 8 5 4 4 1 4 11 11 10 14 14 15 17 15 10 9 15 11 9 3 7 7 5 4 4 6 6 6 6 6 5 5 5 5 7
7 4 3 4 9 3 7 1 8 8 9 8 7 7 6 5 7 8 6 3 5 8 14 16 18 19 15 9 3 10 1 6 7 5 5 3 3 3 5 5 5 4 5 5 5 6 6 7 10
4 5 2 5 5 11 11 5 7 8 8 8 7 7 6 5 6 7 8 8 10 13 18 20 19 16 12 6 6 13 14 11 7 3 4 3 4 5 5 6 5 6 7 7 8 8 8 6 10
5 4 6 3 1 7 6 5 7 6 7 6 5 6 8 7 6 8 10 14 19 18 18 16 15 12 11 16 20 16 11 6 4 4 2 3 3 4 6 7 9 11 12 13 12 10 9 9 12
4 6 4 5 2 5 6 9 6 6 3 2 7 8 9 9 9 10 12 16 18 18 17 17 17 19 20 21 17 7 7 6 5 4 2 3 5 7 9 12 16 15 12 10 8 7 7 7 8
3 6 4 5 6 6 6 4 3 5 6 6 6 7 9 13 14 12 15 14 13 17 20 21 22 19 14 10 8 8 7 7 4 2 3 8 13 15 15 15 16 13 12 6 4 5 7 10 8
4 3 9 13 2 3 2 3 2 3 4 5 7 7 8 11 10 13 14 14 18 19 19 18 16 11 9 6 4 4 3 3 2 3 5 11 13 14 15 16 16 12 7 1 3 6 8 8 9
3 8 10 3 4 4 1 1 3 6 8 9 9 7 8 8 11 13 18 18 15 18 15 15 14 11 10 10 10 10 9 7 5 3 5 10 16 19 18 16 17 12 4 0 2 4 6 6 6
10 6 6 3 2 1 2 3 5 9 15 14 10 8 9 9 8 7 8 11 14 17 16 17 19 20 20 20 20 18 15 10 7 9 13 14 20 22 21 19 15 9 4 1 2 4 4 1 2
4 4 2 1 1 3 1 3 6 13 11 16 16 14 12 8 7 5 7 8 11 16 19 21 21 21 18 16 14 13 11 9 10 12 14 18 19 20 19 20 12 7 4 4 4 3 5 3 3
2 4 4 5 3 2 1 5 3 3 12 15 16 14 11 10 8 6 8 11 14 17 19 19 18 18 16 15 14 12 11 11 12 15 17 19 20 20 22 14 11 7 3 3 6 8 6 5 6
3 2 2 6 2 1 2 3 5 1 8 11 13 14 14 11 9 9 10 10 12 15 17 18 19 18 15 13 11 11 11 12 14 18 22 23 24 22 16 9 10 5 4 9 7 9 9 8 9
1 6 3 2 3 3 2 5 6 5 12 12 13 15 13 9 10 10 10 11 11 14 16 16 16 15 13 10 10 10 11 14 18 21 23 23 22 19 10 10 9 8 13 7 10 9 9 11 11
3 3 6 4 1 2 2 4 4 8 14 16 16 14 13 12 12 10 11 11 13 14 14 15 12 9 8 7 7 9 11 14 16 20 22 22 20 17 10 12 10 10 12 12 10 10 11 12 12
1 3 4 3 4 1 0 5 0 6 7 10 10 10 12 14 13 13 13 14 13 13 13 11 7 4 3 3 5 6 8 11 15 18 20 20 18 14 10 9 10 16 17 14 11 12 11 12 12

GFSSGP_925_spd_012.txt.gz
Wind_Speed
6 4 2 5 6 6 9 5 3 10 10 12 10 11 13 13 7 2 13 11 21 22 22 24 23 23 22 21 20 18 17 15 14 13 12 11 10 9 10 11 12 12 11 11 10 12 13 12 13
7 5 4 2 7 9 7 2 9 13 17 13 13 12 11 10 8 12 12 13 20 22 22 22 23 23 22 20 18 16 15 14 13 12 11 10 10 10 11 12 11 10 9 9 9 11 11 12 14
6 6 4 4 7 11 4 5 14 16 13 11 6 7 4 4 3 11 5 18 17 18 21 22 23 22 21 19 16 15 15 13 12 11 11 10 10 11 11 11 10 9 9 9 10 12 12 13 16
7 6 4 8 10 1 2 12 16 13 10 6 15 7 3 4 2 3 13 19 19 18 19 22 23 21 19 18 16 15 14 12 11 11 10 9 10 10 10 10 10 10 11 12 13 14 13 14 16
7 3 7 10 6 2 5 15 13 5 10 9 9 12 9 7 9 15 12 20 20 19 17 22 20 18 18 17 15 14 12 11 11 10 9 9 10 10 10 11 11 12 13 14 14 13 13 13 14
6 4 6 12 4 3 2 13 7 4 11 7 6 13 7 6 11 13 17 17 16 17 15 16 18 17 16 14 13 12 10 10 8 8 7 8 9 10 11 11 11 11 13 13 12 12 11 11 12
9 7 8 2 3 7 8 13 8 8 13 3 8 8 3 7 13 16 19 17 16 17 16 16 15 14 13 12 10 9 8 7 6 5 6 8 9 9 9 9 9 8 9 9 8 8 7 8 9
4 5 5 3 7 14 14 12 16 8 16 5 4 5 6 13 18 17 16 17 15 13 14 14 14 13 11 9 9 7 6 5 4 4 6 6 7 7 6 7 4 5 4 4 3 3 3 4 6
3 6 7 9 13 13 15 6 5 3 10 5 3 2 14 22 19 19 15 15 14 13 12 12 12 11 10 8 6 5 4 4 3 3 4 4 3 2 1 2 2 2 1 2 3 4 6 7 10
7 6 3 9 15 12 1 4 15 8 13 5 7 12 22 21 20 19 18 15 14 13 12 11 10 10 9 8 7 6 5 3 3 2 2 1 1 1 2 2 2 1 3 4 5 4 6 9 10
6 5 8 12 10 13 15 16 8 12 11 6 14 20 18 20 17 15 14 15 15 13 11 10 10 10 10 8 7 6 6 4 3 3 2 2 4 5 5 3 3 3 4 4 5 6 7 10 10
8 2 3 12 12 11 12 7 7 5 9 3 19 22 19 16 15 16 15 14 13 13 11 9 9 9 9 9 7 7 6 5 4 2 3 3 4 6 7 5 4 3 3 5 6 7 9 10 10
11 2 3 5 11 13 9 5 8 10 7 15 20 18 17 15 15 13 13 12 11 11 10 11 10 9 8 9 8 8 6 4 3 1 2 2 3 6 9 7 5 4 4 5 8 9 11 11 11
1 3 1 1 7 7 9 6 6 10 3 15 18 16 15 14 14 12 10 10 10 9 11 12 12 12 11 10 10 9 8 10 10 8 10 5 3 11 12 6 5 6 6 7 9 10 11 12 11
9 9 10 8 10 6 13 9 7 4 4 14 14 11 10 10 10 9 8 8 10 11 13 14 15 14 14 15 14 12 16 16 9 10 11 8 8 8 6 5 5 6 6 7 9 10 10 11 11
7 7 8 5 9 5 6 12 8 2 8 11 12 11 10 8 8 5 5 5 9 10 13 15 15 16 17 20 18 5 11 13 11 4 7 8 6 5 3 3 3 4 7 8 9 9 12 12 13
7 8 11 9 4 8 7 11 7 2 9 10 10 10 10 9 7 5 4 6 8 11 14 15 15 16 16 19 15 13 11 9 6 6 4 3 1 1 0 1 3 6 7 7 8 9 10 13 14
9 8 13 13 4 7 7 7 6 4 10 10 10 9 9 8 5 5 5 7 9 12 14 16 17 17 14 11 7 8 10 8 6 4 3 4 2 3 3 4 5 6 7 9 10 12 14 14 14
5 7 12 8 4 5 5 7 5 6 8 10 10 10 10 8 7 8 8 10 12 13 15 17 16 15 12 11 12 12 10 6 4 4 5 4 4 4 4 4 7 9 11 12 12 14 17 16 15
6 10 8 6 3 4 9 7 6 5 5 6 9 9 9 9 9 10 12 13 13 15 14 14 14 14 12 12 10 8 8 5 6 5 4 4 5 5 6 7 9 11 13 15 13 12 13 15 12
3 6 10 5 7 2 10 7 8 4 5 6 5 6 8 10 11 12 14 14 15 16 17 17 17 15 11 9 7 7 8 7 4 2 2 3 5 6 8 9 10 12 14 16 12 9 9 13 14
6 3 9 12 13 8 8 8 10 8 7 9 10 11 12 14 13 13 15 17 18 16 16 17 14 11 8 6 7 5 3 2 3 2 1 3 6 9 11 12 13 14 15 13 10 8 8 9 13
3 7 10 8 7 5 11 8 9 9 11 14 13 13 13 13 13 14 16 16 15 15 14 13 13 12 11 11 10 8 7 6 4 3 6 10 12 14 15 16 16 16 14 10 7 7 7 11 12
11 12 8 4 3 6 3 8 8 10 17 16 16 14 15 14 14 15 15 14 14 13 13 13 14 15 14 14 13 13 10 7 6 8 11 13 17 18 18 19 18 16 12 9 7 6 8 12 12
7 10 5 6 5 7 1 6 12 4 5 18 19 18 17 16 15 13 16 16 15 13 14 15 15 15 12 13 12 11 10 8 8 11 12 16 17 19 20 19 17 14 10 8 7 6 10 9 9
9 7 4 5 6 6 3 7 3 1 6 13 18 18 18 16 14 13 14 14 15 16 15 15 14 14 12 11 11 10 9 8 7 9 12 14 16 18 19 18 14 10 8 6 7 11 8 8 9
5 7 3 2 0 4 6 6 10 4 8 13 20 19 19 17 15 13 14 15 17 17 15 14 14 13 11 9 8 8 7 7 7 10 13 15 16 18 18 15 10 8 6 9 11 10 9 8 10
3 8 3 3 3 5 3 7 6 7 11 16 20 20 19 17 15 13 15 16 16 16 15 14 13 11 9 7 6 4 4 6 7 11 14 16 17 18 17 14 11 9 9 11 12 12 9 9 12
4 4 1 1 2 3 3 1 3 1 9 16 20 20 19 17 16 14 16 17 17 16 15 14 12 10 10 6 4 3 3 5 7 10 14 15 17 17 16 14 13 12 15 16 19 15 11 12 13
3 4 7 4 4 0 2 4 3 1 3 10 16 18 17 16 15 15 18 19 19 17 15 13 11 9 7 6 5 1 3 4 7 10 14 16 17 17 15 14 12 14 18 22 17 12 12 14 16

GFSSGP_925_spd_015.txt.gz
Wind_Speed
10 8 9 9 7 8 16 18 2 9 7 10 7 5 10 17 9 5 13 21 28 26 26 24 23 24 23 21 20 19 17 15 13 12 11 11 10 10 11 11 11 11 11 12 13 13 14 15 14
9 9 11 8 8 13 14 16 5 14 13 12 11 10 12 13 12 12 12 18 25 25 25 22 22 21 22 20 18 17 15 14 11 11 10 10 10 10 11 11 10 10 10 11 11 13 15 17 17
8 11 9 7 12 14 12 7 16 13 12 10 7 10 6 5 6 10 13 18 21 22 24 25 23 20 19 17 16 15 13 12 11 11 10 10 9 10 10 10 9 10 11 11 12 14 15 16 17
10 8 8 10 18 12 7 13 11 12 11 10 11 8 4 1 1 6 14 16 16 20 21 25 21 20 18 16 15 14 12 12 11 10 9 9 9 9 9 9 10 11 11 13 12 13 13 14 15
15 9 11 14 17 9 2 11 19 18 9 16 10 9 9 5 5 7 13 12 13 17 17 24 21 17 15 13 13 13 12 11 10 8 8 9 8 8 9 10 12 11 11 12 11 11 12 13 14
9 11 13 14 18 6 5 15 12 13 8 4 4 14 9 9 8 9 15 19 17 14 18 20 20 16 13 13 13 12 10 10 9 8 7 8 9 9 9 9 9 10 10 10 10 10 10 12 12
15 11 16 17 2 7 7 13 11 13 8 7 13 12 4 7 8 9 15 21 31 22 25 20 17 16 14 12 13 11 11 9 8 7 7 8 8 9 7 6 5 6 6 6 7 6 7 9 11
13 12 19 10 4 7 12 5 8 7 14 14 9 2 6 9 10 17 19 16 15 15 22 18 17 16 15 13 13 11 10 9 7 7 7 8 8 7 6 5 3 3 3 4 5 6 7 7 7
12 10 15 10 13 12 16 14 11 3 2 11 4 2 16 17 15 15 17 16 16 15 15 16 16 14 14 14 11 9 8 8 8 7 8 6 3 3 2 3 5 4 5 6 7 8 7 9 10
10 13 13 10 9 16 9 6 8 3 1 10 7 14 20 21 17 15 14 14 14 16 14 13 14 13 12 11 10 9 6 7 6 5 4 3 3 2 4 3 6 7 8 8 7 7 8 9 12
15 14 1 13 8 15 12 7 13 5 7 10 11 17 18 18 16 15 14 14 14 15 11 10 10 11 11 10 10 9 8 7 6 5 2 3 1 2 4 4 5 6 8 8 10 10 10 11 12
12 8 7 7 12 11 14 14 19 18 17 37 18 19 16 17 14 13 15 16 16 13 12 10 10 10 9 10 9 9 9 8 6 5 2 1 2 2 4 6 9 9 8 10 11 13 11 12 13
10 7 2 2 5 9 14 17 7 12 13 19 22 17 16 14 17 17 14 14 16 14 14 13 13 13 12 11 11 12 11 10 7 3 2 0 1 1 1 6 10 11 12 13 13 15 14 16 16
9 6 5 7 6 4 9 8 13 8 16 19 19 19 16 15 16 15 14 15 14 16 16 16 15 14 14 14 14 15 12 7 6 7 6 6 7 9 16 10 9 9 11 12 14 13 15 15 17
5 8 11 10 12 8 11 8 10 8 16 17 16 16 15 14 16 15 14 14 14 15 16 16 16 15 16 17 17 18 16 6 10 6 6 5 4 4 4 2 5 9 9 11 13 14 15 17 18
10 11 13 13 11 5 14 14 9 9 15 16 17 14 14 13 13 14 12 14 14 15 16 16 15 16 16 16 17 15 8 10 6 3 2 4 2 1 2 4 3 5 8 10 12 14 14 17 19
8 7 9 10 12 11 15 17 11 11 12 14 13 14 12 12 11 11 11 11 14 14 16 15 16 17 16 14 15 6 5 2 2 3 2 1 2 2 1 2 4 7 10 11 12 14 16 19 21
7 12 14 13 10 12 10 15 11 13 14 14 15 15 14 13 11 10 8 7 9 12 15 14 14 17 16 10 7 4 3 7 7 4 2 3 2 2 1 2 5 8 11 13 15 17 18 21 23
13 9 12 14 6 10 9 11 13 12 13 14 14 14 13 12 10 9 9 8 8 11 15 16 14 17 13 9 8 8 10 9 6 4 4 3 2 2 5 6 9 11 13 14 16 19 21 21 21
5 6 12 7 9 9 9 11 10 12 14 13 13 13 13 12 10 10 11 11 11 12 13 16 13 14 13 11 11 9 9 7 7 6 4 4 4 5 7 9 11 12 15 17 18 18 19 18 18
5 9 11 12 12 14 11 13 12 10 9 9 11 13 12 12 12 11 13 13 14 15 15 17 16 15 12 12 9 8 6 6 6 4 3 3 5 7 9 11 13 15 17 19 19 17 15 18 17
10 3 10 3 9 14 16 13 21 17 16 13 13 10 11 12 11 12 14 16 16 16 16 17 16 13 11 9 8 6 3 5 6 3 2 4 6 9 12 14 15 16 18 18 18 16 12 16 16
12 7 6 7 12 5 15 9 15 13 15 15 14 13 13 14 15 15 19 20 18 18 17 15 14 12 10 9 7 5 5 5 4 1 4 6 8 11 14 15 16 17 18 18 15 14 14 14 17
4 5 6 7 10 7 16 12 14 15 15 16 16 15 15 16 16 18 20 20 19 17 16 15 14 13 12 11 10 10 7 5 3 4 6 7 10 11 12 14 16 17 17 15 14 12 13 12 15
9 9 8 8 8 10 3 6 12 7 7 14 18 18 17 16 16 16 17 19 18 18 16 15 15 14 13 12 11 10 8 6 5 7 6 8 9 11 13 16 17 17 16 13 11 11 11 13 13
9 13 9 6 6 10 7 7 3 9 3 6 18 17 17 18 16 16 18 18 18 17 18 16 16 15 14 13 11 8 6 4 3 4 6 7 9 11 14 15 16 15 12 7 7 13 14 12 13
7 8 7 5 3 7 12 16 11 6 5 8 16 18 19 19 17 17 19 18 18 18 18 18 16 15 14 12 9 7 6 6 1 3 5 7 9 12 14 15 15 13 10 8 12 12 13 15 11
8 3 4 5 4 9 5 5 5 6 6 10 15 18 19 18 18 16 16 17 18 20 20 18 17 16 13 11 9 8 6 3 1 4 6 8 10 12 14 15 15 15 12 14 13 15 19 14 14
7 10 7 4 2 4 4 2 7 3 2 9 13 17 18 18 18 15 17 19 21 21 21 20 18 15 12 11 10 8 5 4 4 5 7 9 12 13 14 15 15 15 15 15 18 22 20 15 17
10 8 10 5 6 2 3 7 3 4 2 7 10 13 16 16 17 16 19 21 22 22 23 21 17 14 13 11 10 8 6 5 6 7 8 10 12 13 15 14 14 15 14 17 19 17 16 13 14

GFSSGP_925_spd_018.txt.gz
Wind_Speed
11 11 11 15 6 8 15 18 20 3 15 6 6 11 13 13 6 4 8 24 34 31 30 26 27 25 24 22 22 21 19 17 17 16 15 15 15 16 16 17 16 16 16 15 16 17 18 20 19
10 13 17 6 8 12 15 14 11 15 13 12 14 6 11 10 12 15 15 28 32 30 28 26 26 25 24 22 21 20 19 16 17 16 15 14 15 15 15 15 15 15 15 15 16 18 20 21 22
11 13 7 6 12 14 17 8 10 14 11 12 6 11 4 10 13 7 20 23 29 30 25 25 24 22 23 24 19 18 17 17 17 16 14 14 13 14 14 14 15 15 16 17 17 18 18 20 21
8 8 7 8 18 21 19 16 14 6 14 6 12 8 4 6 5 16 20 24 25 25 23 25 22 21 21 20 18 17 17 15 16 15 14 13 13 13 14 14 15 16 17 16 16 16 16 18 20
15 7 10 13 18 22 9 11 16 15 6 8 13 4 6 6 8 26 21 18 22 21 26 21 19 20 20 19 18 17 16 15 14 14 13 13 13 13 14 15 15 15 15 15 15 14 14 16 18
7 9 13 14 22 16 7 20 21 17 13 4 7 7 9 14 15 17 20 23 23 28 26 21 16 18 18 18 18 16 15 14 13 13 13 13 13 13 13 13 14 13 12 12 12 11 11 12 15
14 11 16 20 17 10 12 17 16 13 16 7 5 3 6 13 22 25 29 26 25 23 23 24 18 17 19 19 19 16 14 13 12 13 13 13 12 13 11 10 10 9 9 8 8 8 9 9 10
12 12 21 19 18 4 10 9 12 14 11 11 6 6 5 18 24 25 21 24 29 17 19 23 21 20 19 18 17 15 14 13 12 13 13 13 14 11 9 9 7 6 6 7 8 8 9 11 9
16 12 14 17 12 5 9 1 10 16 7 2 6 8 13 27 25 26 26 23 21 21 17 26 25 21 19 19 17 16 15 14 14 14 12 10 7 5 7 6 5 4 6 7 7 8 10 10 17
12 11 17 15 13 8 2 13 6 3 17 10 7 27 19 23 22 25 24 34 35 24 19 22 22 20 20 17 18 14 14 12 8 9 6 9 5 3 2 1 2 3 6 7 6 9 10 10 13
15 15 15 4 11 16 21 6 16 6 3 16 8 19 18 19 17 18 20 27 26 25 22 20 18 18 20 17 16 15 15 12 8 8 4 4 4 4 2 4 1 5 8 11 10 12 12 14 10
15 17 13 8 6 6 10 18 8 1 7 6 7 6 15 15 15 17 20 30 24 23 23 19 20 17 17 16 15 19 15 13 11 8 3 4 2 5 3 6 6 10 11 11 13 14 12 13 16
14 15 1 13 12 13 20 14 7 6 2 4 2 8 14 10 15 15 19 26 26 23 18 17 18 18 18 19 18 20 16 14 8 6 2 4 5 2 2 9 10 8 5 7 9 12 16 17 16
9 13 5 7 19 8 19 7 13 15 12 4 10 13 13 14 17 14 18 22 19 26 23 22 20 21 17 19 21 19 17 9 6 10 7 4 1 6 5 4 2 4 8 11 11 13 15 15 18
4 5 3 2 5 9 8 20 6 29 23 22 19 14 14 14 18 15 17 17 22 24 23 21 21 20 19 20 20 20 14 5 3 3 4 5 3 2 4 5 8 10 11 12 12 14 15 15 17
7 11 4 4 7 8 12 11 11 17 17 16 18 14 11 12 15 14 16 15 20 25 22 20 19 20 21 21 21 15 5 4 2 4 5 8 7 6 6 8 9 6 10 11 11 12 13 17 19
8 6 9 13 12 4 7 15 13 13 7 17 15 11 14 11 14 16 15 17 17 27 26 21 19 20 20 18 18 6 5 5 4 7 7 8 7 6 6 3 6 8 10 11 11 14 17 18 21
5 5 11 13 11 15 10 14 13 11 21 10 14 12 11 10 9 13 13 15 16 26 27 25 18 22 14 13 12 6 5 7 9 8 7 6 7 6 2 6 7 7 10 12 14 16 16 16 18
8 14 19 12 11 9 10 15 15 14 10 12 14 17 16 12 14 13 8 8 6 23 28 25 22 23 17 13 13 9 11 12 11 9 9 7 7 5 6 4 7 10 9 13 14 15 15 16 17
13 9 8 9 6 7 10 11 15 15 15 14 13 19 16 16 14 14 12 11 9 15 23 20 18 15 17 15 13 14 16 10 13 10 8 8 6 5 4 6 7 9 11 14 14 16 18 14 14
11 5 8 9 7 9 6 11 16 15 15 14 13 12 13 16 14 12 14 15 14 21 21 18 18 19 18 16 15 13 15 12 11 8 11 5 4 4 5 8 8 11 11 13 15 16 16 10 12
8 12 5 7 11 7 5 8 10 7 14 14 13 13 13 15 14 13 15 16 18 19 15 22 23 17 18 15 14 13 11 14 11 12 8 4 4 5 7 10 11 11 12 14 15 14 15 13 13
4 15 10 16 9 5 9 9 10 11 11 15 15 12 11 11 14 14 15 21 22 20 20 20 18 15 14 8 13 10 14 12 11 9 8 6 7 8 8 9 12 13 15 16 15 15 13 11 11
11 10 14 10 10 2 15 10 11 10 19 11 14 11 9 11 12 13 18 20 19 19 19 19 18 16 14 13 14 17 14 12 13 8 3 3 5 7 8 10 13 13 14 15 13 10 8 9 11
8 9 5 8 5 8 8 9 8 20 10 12 16 16 12 11 13 14 15 18 19 19 18 18 19 18 16 16 16 16 14 11 8 5 4 2 2 6 8 12 12 13 13 13 10 8 9 12 13
19 10 3 7 4 9 3 5 2 21 16 28 25 16 15 14 12 14 17 19 20 20 20 20 21 20 18 18 17 15 12 7 9 6 3 1 3 6 10 10 12 14 13 10 12 13 10 14 12
6 7 7 2 14 6 3 13 10 9 9 1 18 16 16 15 14 14 18 20 21 20 21 21 22 21 20 19 16 11 11 12 9 6 3 1 3 6 9 11 13 14 16 11 11 10 11 12 15
6 8 3 2 2 4 8 10 5 5 4 2 9 14 14 14 15 13 16 19 21 20 21 20 21 23 22 19 15 14 13 12 8 6 4 2 4 8 10 12 13 14 15 14 11 13 13 18 16
6 7 7 6 3 1 3 3 6 7 6 4 6 13 14 15 14 13 16 20 20 20 21 20 21 22 21 17 16 15 14 12 9 6 4 3 5 8 10 12 13 14 14 15 13 16 18 18 15
8 10 12 3 5 2 1 6 3 5 4 2 4 8 14 16 14 14 17 18 17 19 20 20 19 21 18 17 16 17 15 12 9 6 5 6 7 9 11 13 14 15 14 12 11 14 15 16 12

GFSSGP_925_spd_024.txt.gz
Wind_Speed
6 6 3 1 3 5 3 8 4 5 0 5 2 13 7 5 4 2 20 18 33 31 34 34 32 31 28 26 25 24 25 25 26 26 26 26 25 25 24 24 25 25 24 26 26 26 26 23 25
3 3 1 2 4 3 5 5 5 2 2 2 6 4 7 5 5 10 11 27 38 37 36 35 36 33 29 27 26 25 24 25 26 27 25 25 24 24 25 25 25 25 25 25 26 27 27 25 27
3 2 3 4 4 5 6 3 1 1 5 3 4 6 5 4 9 7 21 27 34 34 37 36 35 33 30 28 26 25 24 25 26 26 23 23 24 25 26 25 25 25 25 24 24 25 26 24 26
2 4 4 3 6 5 5 6 2 3 5 7 3 7 5 10 4 14 33 36 33 29 36 36 35 33 29 27 26 25 25 26 26 25 23 23 25 26 26 25 24 23 22 21 21 22 24 23 22
2 3 1 3 3 1 5 6 2 6 3 8 7 4 5 10 27 31 30 25 26 28 35 35 32 31 29 26 24 24 24 25 24 24 23 24 25 25 25 23 22 20 19 18 18 19 20 21 21
3 3 1 3 3 3 4 1 1 2 3 1 5 5 4 8 20 24 20 18 28 31 35 35 34 32 27 24 24 24 23 23 23 24 23 24 25 24 23 21 19 17 16 15 16 16 16 16 17
3 2 2 3 3 3 2 7 0 5 3 3 3 4 4 13 18 25 25 27 26 23 31 33 40 38 25 22 23 21 21 22 22 23 24 23 23 22 19 18 16 15 13 13 14 14 14 14 11
4 3 3 3 5 1 3 3 3 3 4 3 2 5 6 5 26 33 31 25 19 34 37 31 28 28 28 24 21 20 21 22 23 23 22 21 20 18 15 14 13 12 12 13 12 11 11 10 10
5 1 2 4 2 3 2 6 5 4 7 4 5 3 18 23 30 30 32 33 28 23 16 26 30 23 22 23 21 21 21 22 24 23 22 19 18 15 14 13 12 11 9 9 9 7 8 8 9
4 3 5 3 3 1 3 1 5 3 4 7 14 19 23 24 21 21 17 22 28 27 29 34 26 25 24 23 23 23 24 23 21 19 18 16 14 12 10 9 9 8 8 6 6 7 9 11 11
4 5 4 2 5 7 3 1 2 7 1 4 19 18 19 19 16 18 16 20 28 24 34 30 25 27 27 25 25 24 24 20 16 14 13 12 11 8 9 8 8 9 9 12 10 9 8 8 8
2 8 8 6 7 6 6 4 1 6 5 8 18 21 21 14 13 14 20 23 26 27 31 25 25 28 26 27 26 24 21 16 14 14 13 16 20 17 17 14 13 11 9 8 7 7 8 9 10
6 4 9 4 6 4 9 3 5 4 9 6 19 22 25 21 18 17 16 16 15 17 25 24 27 28 26 25 23 20 18 20 19 18 18 16 13 11 9 10 10 9 5 6 5 4 4 4 4
8 8 7 6 8 2 5 5 5 4 9 7 9 14 21 19 22 18 16 18 20 20 26 27 29 28 26 23 20 21 22 18 17 16 14 13 12 9 8 9 10 8 7 6 4 4 4 5 6
3 9 5 3 5 4 5 3 7 10 9 8 8 11 21 23 26 27 28 25 25 27 31 31 30 25 26 24 25 23 21 17 14 12 10 10 8 8 9 11 11 9 7 6 5 4 4 6 9
2 5 5 9 4 5 5 2 3 11 14 10 9 7 15 22 33 31 33 31 32 32 33 26 29 31 31 32 26 22 17 13 13 12 13 13 15 14 13 12 10 7 7 5 4 6 8 10 10
5 2 4 3 10 2 1 4 4 7 9 7 7 7 9 17 22 28 30 35 40 40 35 27 30 34 33 29 24 19 13 13 15 16 17 16 15 15 13 10 10 5 4 3 6 9 11 11 10
4 2 3 2 7 7 4 2 5 7 8 9 8 5 8 18 19 30 31 35 38 43 37 32 32 33 30 26 22 18 15 16 17 17 16 15 13 13 11 9 6 3 1 5 9 11 10 11 11
4 9 6 5 10 5 8 7 10 9 8 10 7 5 4 15 20 31 35 34 33 37 40 38 36 34 32 31 25 20 19 20 16 16 15 13 12 12 8 4 1 2 7 9 10 9 11 12 8
2 10 8 11 8 5 8 6 9 9 14 12 10 8 9 7 11 21 29 31 34 40 37 37 38 39 36 30 26 20 19 19 19 19 16 14 11 8 5 4 4 5 6 6 6 9 8 4 7
6 6 4 3 4 7 6 4 4 6 5 5 5 11 13 17 17 13 26 29 31 32 38 40 39 38 32 27 25 20 21 24 23 22 17 13 9 6 4 3 2 0 3 5 6 6 5 4 1
5 9 3 4 4 2 2 2 7 10 12 10 14 11 12 11 12 12 18 25 32 37 39 37 38 35 30 28 31 30 30 26 26 24 19 14 9 7 7 5 1 2 5 6 7 8 7 2 2
7 2 3 2 4 2 5 3 6 5 11 14 16 17 13 14 16 15 20 29 29 35 37 37 35 32 27 32 30 33 33 29 25 21 19 15 12 9 6 2 2 6 6 7 8 6 3 3 2
5 4 7 4 3 3 5 4 5 5 11 16 13 19 17 12 8 7 19 24 26 31 32 31 32 28 28 25 27 36 34 28 27 24 20 15 12 7 3 3 7 8 7 9 7 3 5 7 7
4 5 3 4 4 4 3 3 8 8 10 8 11 10 15 11 12 13 12 18 22 26 29 30 26 21 24 26 28 31 30 31 30 25 19 16 12 7 4 6 6 6 7 7 5 6 8 8 8
6 7 5 3 3 3 3 6 6 5 10 7 2 8 7 10 12 13 15 20 25 30 32 32 32 24 23 27 25 29 28 27 22 17 14 11 9 5 3 3 6 7 8 8 7 9 10 6 5
7 2 4 7 3 2 4 6 7 5 4 4 7 7 9 9 12 13 15 20 26 29 33 35 33 28 25 26 26 23 20 17 15 13 10 10 6 3 2 4 6 8 10 10 10 9 10 10 10
7 3 2 3 4 3 4 5 4 2 2 3 4 9 8 8 9 12 18 23 27 33 32 31 31 31 28 26 24 21 17 14 13 11 9 7 4 2 3 4 7 9 11 9 12 7 8 9 11
1 2 1 4 4 4 1 5 5 6 6 8 9 9 12 14 15 16 19 27 32 35 35 35 34 33 31 28 26 22 19 17 14 12 11 8 5 5 7 5 6 9 10 11 6 7 11 12 12
4 7 6 5 4 0 4 5 4 8 7 6 9 8 10 15 17 17 23 26 27 32 35 40 39 37 36 33 29 25 21 18 17 15 14 12 10 8 9 6 7 9 10 10 10 10 10 12 7

GFSSGP_925_spd_027.txt.gz
Wind_Speed
2 1 1 4 4 5 3 6 3 8 3 5 2 6 8 3 3 2 11 15 30 32 34 33 32 31 29 28 26 26 25 24 26 27 28 27 29 27 29 31 32 31 28 25 24 26 28 28 25
1 4 3 2 4 2 5 5 6 4 5 4 5 4 7 4 3 6 8 17 32 32 34 33 32 33 32 32 28 26 25 25 25 26 27 26 29 29 30 32 32 32 29 26 25 28 29 32 28
4 2 3 4 3 4 4 3 0 2 3 2 2 6 3 4 3 3 11 26 28 27 33 34 33 32 31 31 28 25 25 25 25 24 24 25 28 28 30 31 31 29 28 27 26 27 28 27 26
4 4 4 3 4 6 4 6 5 2 4 7 2 5 4 9 4 8 23 22 25 27 30 35 35 34 32 30 28 27 26 25 25 23 24 24 28 28 29 30 28 27 25 25 25 23 26 25 23
4 3 2 1 5 4 1 4 2 4 3 4 1 2 4 6 17 19 20 19 20 23 31 34 36 33 32 30 28 28 26 25 24 23 23 25 27 27 26 26 25 24 23 22 20 20 19 21 18
4 3 4 1 4 5 1 1 1 1 1 2 6 4 4 5 21 17 18 13 14 22 27 30 36 34 31 31 30 28 26 24 23 23 24 25 25 24 24 23 21 21 19 17 17 16 15 16 15
5 3 4 3 4 5 3 1 2 4 0 4 4 5 3 13 27 24 22 18 12 10 17 25 29 32 30 29 28 25 24 22 22 24 24 24 24 23 21 20 19 18 17 15 15 13 13 11 13
4 3 2 2 4 6 3 2 3 3 4 3 5 5 5 8 27 33 34 36 35 28 32 29 27 21 22 22 21 22 22 22 22 23 24 22 22 19 17 16 16 16 15 13 11 10 10 10 10
3 4 0 4 3 5 1 4 3 3 6 4 5 3 14 23 27 27 26 28 36 34 31 28 23 19 19 16 18 19 21 21 23 22 22 20 18 16 15 14 14 12 10 9 8 8 8 9 9
4 4 5 5 3 3 4 3 4 4 5 6 10 15 18 20 21 23 22 19 26 29 29 33 26 20 17 15 18 19 21 21 23 22 20 18 17 15 14 13 11 9 7 7 9 9 9 7 7
4 4 6 6 6 3 4 5 3 9 2 6 17 14 13 13 11 15 17 14 17 28 28 27 24 23 21 19 17 20 21 22 21 20 17 16 14 13 13 12 11 10 10 10 10 8 7 8 9
2 8 6 5 4 2 1 4 5 2 2 18 16 11 7 6 10 11 20 20 25 29 38 31 24 22 21 20 20 21 20 18 18 17 14 14 13 13 13 11 14 12 10 8 7 8 10 10 9
5 5 6 6 7 3 3 3 5 6 16 20 21 18 12 13 11 11 19 23 30 25 32 27 22 22 22 21 21 21 19 15 15 16 16 18 16 16 15 13 12 10 9 8 8 8 7 6 7
4 3 1 1 3 4 5 1 4 2 17 19 19 16 16 17 16 14 18 23 25 25 30 26 22 21 21 23 21 20 19 17 18 18 20 17 14 14 14 13 12 10 9 9 7 6 5 6 7
3 4 3 2 2 4 9 3 6 15 13 20 19 14 11 11 14 18 26 26 31 34 30 27 24 25 24 23 20 21 21 20 19 18 16 14 11 11 13 13 12 12 10 8 6 5 5 5 8
2 4 3 1 6 1 3 3 4 10 12 14 16 14 12 14 21 20 22 25 27 26 29 27 25 28 26 27 23 22 21 19 16 14 13 11 10 12 16 14 12 11 8 5 3 3 5 7 9
5 2 1 4 7 2 2 3 6 9 10 10 10 15 13 10 13 18 22 27 31 29 30 28 27 29 27 24 24 23 20 15 13 12 12 13 14 15 15 12 11 9 6 4 3 4 7 9 9
2 3 3 2 2 4 4 4 6 10 8 9 8 8 11 13 18 27 27 28 25 31 31 29 29 29 28 27 25 21 17 16 16 17 16 14 15 15 13 12 10 6 3 1 4 7 9 11 9
3 2 6 4 6 7 10 7 10 9 7 5 6 8 10 16 22 25 27 27 26 30 33 30 29 31 32 31 28 22 21 20 19 18 16 14 15 15 12 10 8 4 1 5 7 10 11 9 7
8 5 9 8 3 10 7 5 1 5 9 8 12 10 15 14 13 20 22 26 30 34 36 33 33 35 37 36 32 26 23 22 20 19 17 16 16 13 9 6 3 4 6 7 10 10 7 4 4
4 4 6 5 2 5 6 4 3 3 2 1 6 6 9 17 17 15 22 26 28 32 40 40 38 39 38 35 29 22 22 20 21 22 21 18 13 8 5 4 4 6 8 11 10 7 3 3 1
5 3 7 4 3 2 3 3 4 6 10 6 8 8 9 15 14 13 20 24 31 33 36 36 41 40 39 34 31 29 30 24 26 26 21 16 11 9 6 5 5 7 9 9 8 8 5 3 3
8 5 1 1 3 5 5 4 7 5 7 14 16 12 10 9 13 16 22 28 27 30 39 38 38 38 38 35 34 32 29 28 26 23 20 16 12 9 8 6 5 7 8 7 6 5 2 1 0
4 2 7 4 3 2 2 4 5 5 17 19 21 13 13 10 8 7 14 22 25 30 34 32 35 34 37 32 30 29 28 25 26 23 21 17 14 11 7 3 5 8 8 6 3 2 1 4 3
7 5 3 4 4 4 2 1 8 8 11 10 13 16 16 11 11 10 12 18 23 28 34 33 34 32 32 29 26 26 26 28 29 29 25 21 17 12 8 4 6 10 5 3 4 3 4 4 4
2 4 4 3 2 3 3 4 6 4 7 8 10 10 7 9 13 15 18 22 24 27 28 30 32 32 31 27 27 25 27 31 31 29 23 19 15 10 6 1 9 2 2 3 6 6 6 5 5
2 1 3 6 3 3 3 6 10 6 2 5 5 5 7 9 12 15 18 23 23 27 33 35 32 32 31 30 28 25 27 31 32 25 21 19 14 10 5 2 4 3 3 4 4 4 6 7 8
2 6 1 2 3 3 4 4 5 7 3 5 5 8 7 6 7 9 14 21 26 31 31 31 33 36 33 31 31 31 32 32 29 27 24 21 19 10 12 8 7 4 4 6 7 7 5 7 11
1 2 2 4 5 4 1 6 6 6 5 6 4 8 8 8 9 11 13 21 27 31 34 37 37 35 35 35 37 36 33 30 28 26 23 21 14 15 12 9 6 5 6 7 6 5 7 9 10
2 2 5 4 4 1 3 6 5 8 6 5 9 5 8 8 11 12 15 20 24 28 33 40 41 42 40 38 36 34 32 30 28 26 23 20 18 14 12 8 7 7 7 8 8 10 12 11 12

GFSSGP_925_spd_030.txt.gz
Wind_Speed
3 2 2 5 4 5 3 6 3 5 2 1 2 5 5 7 3 2 3 12 25 34 33 32 33 33 33 32 31 30 30 29 29 29 28 29 30 31 33 33 30 28 28 26 28 27 28 27 25
5 3 4 3 4 2 5 4 3 2 3 4 4 4 5 5 2 5 5 17 27 29 30 31 31 32 33 32 30 30 30 31 30 29 28 29 32 33 32 32 30 29 28 27 30 29 26 25 23
5 2 3 4 4 5 4 3 2 2 4 2 3 4 4 4 2 2 12 22 25 26 29 30 31 32 32 31 29 28 31 31 30 28 29 29 30 32 32 31 30 28 27 27 27 26 24 23 20
3 4 4 4 4 5 5 6 3 2 2 5 2 5 5 7 5 6 18 19 24 25 29 29 29 30 30 30 29 28 31 30 29 28 28 26 27 30 31 30 29 27 26 23 25 23 22 23 21
3 3 3 2 4 4 4 3 4 3 2 3 3 4 4 4 12 18 18 19 20 23 28 29 29 31 29 27 28 27 30 28 27 27 27 25 29 29 27 27 26 25 24 24 22 20 21 21 22
4 3 4 1 3 5 3 2 1 2 0 2 5 3 3 9 16 16 18 15 14 15 24 27 29 25 27 25 27 27 26 26 26 26 26 27 28 27 25 23 22 20 19 19 20 18 18 18 17
5 3 2 2 3 5 1 1 1 4 2 4 3 4 3 9 14 16 15 13 12 12 16 20 28 28 23 24 23 26 25 25 24 25 26 26 26 24 22 20 18 17 16 16 17 17 15 15 14
4 4 1 3 3 5 2 1 1 3 3 2 3 5 5 6 22 19 21 27 26 27 24 29 31 32 21 22 21 23 23 25 24 25 25 25 24 22 20 17 16 14 14 13 12 13 13 13 13
3 4 2 4 2 4 1 2 3 4 6 4 3 2 14 20 28 29 27 27 34 37 34 37 41 21 17 18 17 19 20 23 24 24 24 24 22 19 17 14 13 11 11 10 9 10 11 11 11
4 3 6 5 2 2 2 1 3 4 3 5 9 12 17 21 19 20 19 19 23 31 37 34 30 18 17 15 13 13 17 20 23 23 22 20 18 17 15 13 11 10 9 10 11 11 11 10 10
4 4 5 6 4 2 1 1 1 8 2 4 14 10 9 14 15 17 18 20 25 34 37 37 23 21 25 15 15 17 19 21 20 20 19 17 17 15 14 12 11 12 12 12 11 10 10 11 11
3 8 6 2 6 4 3 4 4 4 2 11 12 15 12 12 12 15 16 17 22 27 41 39 39 29 18 15 14 15 19 22 21 18 16 16 15 14 13 11 13 12 11 11 10 10 11 10 8
4 4 3 4 6 4 6 5 6 4 10 10 11 11 12 8 7 10 13 20 26 32 38 37 29 23 18 14 16 17 18 19 18 16 14 14 13 14 13 14 13 11 9 9 10 10 9 7 7
4 3 2 3 6 3 9 4 4 3 3 8 9 8 9 9 11 11 13 18 26 26 27 30 22 16 18 14 17 19 17 17 18 16 14 13 14 15 14 13 12 11 10 9 8 7 7 7 8
2 3 3 3 3 3 7 2 4 14 12 8 9 7 6 8 11 13 16 18 26 26 26 28 20 16 18 15 18 19 16 16 17 17 17 15 13 13 13 12 12 11 11 9 7 6 6 6 8
2 3 2 4 1 4 3 1 5 14 14 11 8 5 3 4 11 15 20 20 23 24 26 23 20 18 19 18 19 18 19 17 17 17 16 15 14 13 13 13 13 13 10 7 5 4 4 6 6
6 1 3 2 7 4 3 3 9 11 12 12 10 9 6 5 10 19 24 26 30 29 25 24 23 21 22 20 21 22 21 19 16 15 14 13 13 15 15 15 14 11 8 6 4 3 4 5 3
1 3 3 2 3 3 1 3 8 13 10 13 12 10 10 9 14 21 26 30 29 28 26 26 24 23 24 22 22 24 21 18 15 14 13 14 17 18 16 14 13 9 6 4 2 3 5 5 4
2 1 3 4 5 6 9 5 9 10 8 9 11 12 12 14 16 17 23 26 28 27 28 28 28 26 26 24 26 26 23 18 17 15 15 16 17 16 15 13 10 7 4 4 2 3 5 6 5
3 2 6 4 4 6 2 4 4 9 9 13 13 12 13 11 8 14 21 26 31 32 32 31 31 31 32 31 30 27 25 22 19 18 16 15 17 16 14 11 8 7 5 4 3 4 6 4 4
4 3 5 5 3 4 3 4 3 4 3 6 8 9 9 12 12 12 18 28 32 35 38 38 38 36 35 36 34 25 24 20 20 20 19 19 18 15 11 10 8 7 4 2 4 6 6 5 4
3 3 4 4 3 3 1 3 4 5 9 6 8 9 10 12 9 10 17 23 29 29 33 37 41 37 35 36 35 32 30 24 21 25 23 21 17 15 12 10 8 5 4 5 8 9 8 6 3
8 4 1 1 4 3 3 4 5 2 8 15 14 12 13 12 13 13 17 23 25 33 35 34 30 31 34 35 36 33 29 26 23 26 24 21 18 15 13 11 6 4 6 7 9 8 7 4 2
1 2 5 4 3 2 2 3 5 5 13 19 18 13 15 11 11 11 19 20 25 26 31 28 25 34 35 36 34 35 31 25 26 27 26 23 20 18 14 10 7 5 9 5 6 4 2 0 2
3 5 3 4 4 4 1 1 8 8 6 7 10 11 15 13 12 11 12 18 23 28 30 31 38 30 36 36 39 32 26 28 30 33 31 28 25 21 17 11 4 3 5 5 3 2 4 4 4
2 6 5 2 1 3 2 4 6 4 7 8 9 8 8 10 12 14 15 22 24 27 29 26 33 30 34 36 35 30 29 29 31 37 35 33 29 24 18 12 4 2 6 2 3 4 6 7 6
3 2 5 6 3 2 4 7 9 3 5 7 7 4 7 9 10 14 13 22 23 28 31 33 32 32 36 34 32 32 30 32 36 39 36 32 26 23 19 8 6 3 4 3 4 5 8 9 9
2 7 3 3 2 3 4 4 5 8 6 5 6 8 4 5 7 7 9 17 21 27 28 32 34 36 34 33 34 33 32 34 37 35 35 30 25 23 17 10 9 8 5 3 7 9 10 12 11
2 1 5 5 4 4 1 5 7 6 5 4 7 8 7 6 7 6 7 16 22 26 32 34 33 33 31 31 32 32 34 33 32 35 33 30 27 24 13 14 13 9 7 5 7 10 11 12 11
4 7 6 4 4 1 3 6 5 8 7 5 6 7 5 6 7 6 7 11 18 25 29 30 28 28 28 29 31 33 31 30 30 35 33 31 28 18 17 16 14 11 10 8 9 10 12 14 14

GFSSGP_925_spd_033.txt.gz
Wind_Speed
2 3 1 3 2 1 3 3 2 3 2 2 3 4 9 6 2 2 3 13 25 33 30 29 33 34 34 33 32 32 32 33 32 33 32 33 32 32 30 28 28 26 25 25 24 26 25 24 22
4 4 2 2 2 3 3 2 3 2 1 1 1 4 4 6 3 4 5 16 31 32 29 28 33 33 32 32 31 32 32 33 33 34 34 35 34 32 29 28 27 28 26 26 26 25 25 23 21
3 1 0 2 2 4 1 3 1 2 1 2 1 6 3 3 6 2 7 23 31 29 28 28 34 32 32 32 31 31 31 32 34 35 36 35 34 32 29 28 27 27 25 25 24 22 22 21 20
1 2 3 1 4 3 4 2 3 2 2 4 5 7 4 5 2 5 18 25 28 25 26 32 33 33 32 31 31 31 31 30 32 33 35 34 33 30 30 28 27 25 23 23 24 22 20 20 20
4 1 2 1 3 4 4 2 1 0 2 4 1 4 4 4 14 14 17 19 26 27 24 30 31 32 30 29 31 30 31 29 30 32 34 35 33 30 29 28 25 24 23 23 23 23 22 20 19
2 0 1 1 4 3 4 2 2 2 3 3 4 6 3 6 12 13 17 20 21 24 23 26 29 30 28 25 29 29 31 28 30 31 33 34 32 29 26 26 24 23 21 21 20 20 20 19 18
2 1 1 3 4 5 3 1 1 3 3 4 1 5 3 7 13 16 14 14 15 18 24 22 29 25 23 24 26 28 28 28 30 30 32 32 29 26 23 22 22 20 19 18 18 18 18 17 15
3 1 1 2 2 3 4 2 3 5 2 2 4 5 5 4 20 21 19 18 21 19 23 34 33 29 23 22 19 24 26 26 29 29 29 29 25 22 20 19 18 18 17 16 17 16 15 14 12
2 1 2 2 2 3 3 1 2 2 4 3 3 2 14 16 21 26 26 24 28 27 34 38 43 40 26 23 21 18 21 23 25 27 28 26 21 18 17 16 15 14 14 15 15 14 13 12 11
2 1 3 4 1 1 1 1 4 3 3 4 6 15 19 18 21 22 18 20 22 30 33 47 40 32 23 17 20 20 20 23 25 26 26 23 20 17 15 15 13 12 14 15 14 13 12 11 10
3 5 4 4 5 3 1 2 2 6 3 7 15 16 13 20 19 19 16 20 25 29 29 28 36 33 25 17 16 19 18 22 24 23 22 19 17 16 14 13 14 15 13 14 14 13 12 11 11
3 7 5 3 3 3 3 4 3 1 3 1 15 15 15 14 16 19 18 22 28 30 34 32 35 35 25 20 17 17 21 22 22 19 17 17 16 16 14 14 15 15 14 13 11 11 11 10 9
5 5 3 3 5 3 5 3 3 6 9 11 14 10 10 12 17 17 18 19 20 25 28 29 37 37 23 19 17 13 17 18 18 18 16 16 15 15 15 15 14 13 13 11 11 10 8 7 6
3 3 1 2 5 3 6 3 3 5 7 10 10 13 14 12 13 16 19 15 20 27 26 26 34 21 15 13 16 18 19 19 19 17 15 15 15 14 15 15 14 13 12 12 10 7 6 5 5
1 2 3 4 3 3 5 3 3 8 9 10 11 8 10 10 12 14 17 23 30 29 28 26 22 17 16 12 15 17 19 19 17 16 14 15 15 15 16 15 15 14 12 9 8 7 6 5 4
1 3 2 2 2 2 0 0 2 7 10 10 12 9 11 11 11 13 14 22 29 27 25 24 20 18 16 15 16 19 17 16 18 19 18 15 15 15 15 15 14 13 12 10 8 5 4 4 3
6 1 0 1 9 6 3 2 8 9 9 10 8 10 10 9 11 12 17 24 28 24 23 23 21 19 16 16 17 18 17 16 16 17 17 16 16 15 14 15 16 15 12 9 6 3 3 2 2
2 1 2 2 5 3 6 3 11 14 12 13 11 9 9 10 14 18 19 23 25 25 23 22 22 20 18 18 19 18 19 18 18 17 17 17 17 16 17 18 17 13 10 7 4 3 0 1 2
3 2 2 3 1 4 7 7 14 16 13 12 11 11 12 14 14 18 21 25 27 27 25 24 24 25 24 25 21 19 22 20 19 18 18 17 18 20 20 19 16 13 9 6 3 3 4 2 2
2 2 2 2 3 5 4 5 8 15 18 15 13 13 15 13 12 16 22 25 27 28 28 26 26 27 27 25 24 17 23 22 19 18 18 19 21 22 20 19 16 12 9 6 5 6 5 3 3
5 2 2 4 1 2 1 6 5 8 12 13 14 13 14 15 15 13 21 27 28 29 29 26 23 27 27 24 25 24 23 18 18 20 21 22 22 22 21 18 15 13 9 7 6 7 6 4 4
2 4 1 1 2 1 4 2 2 5 13 13 15 16 17 17 16 15 19 23 27 27 23 24 26 29 28 28 28 30 26 21 17 21 20 23 24 23 20 18 17 14 10 8 5 3 5 7 4
4 2 2 1 2 2 2 1 1 3 11 19 19 17 19 19 18 19 22 26 27 25 26 27 24 26 29 33 31 29 22 19 20 24 23 24 23 22 21 20 18 14 13 7 4 5 5 2 4
3 2 4 3 2 2 2 2 3 4 6 8 21 19 19 18 18 19 24 24 24 22 25 29 28 26 28 29 26 30 28 29 25 29 28 26 25 25 23 21 17 15 9 6 8 10 7 6 4
3 2 2 1 1 2 3 2 7 6 9 10 10 17 19 17 17 17 17 23 24 26 26 26 28 23 20 28 31 32 35 33 31 33 33 31 28 28 29 25 22 14 10 10 9 9 9 5 5
4 5 4 3 3 2 2 4 3 4 5 9 11 11 9 15 16 19 20 24 26 27 28 28 32 30 30 35 32 29 29 30 30 34 35 36 36 27 28 23 16 12 10 8 11 8 8 7 7
4 3 2 6 1 2 1 4 8 2 3 3 0 4 9 9 13 18 18 22 22 24 30 34 32 34 33 30 28 27 28 30 35 34 34 37 32 29 29 24 18 14 12 13 9 8 7 7 9
2 7 2 1 2 2 2 3 4 4 3 5 6 5 5 4 7 10 12 17 17 20 24 25 26 30 32 27 26 28 31 33 33 32 32 34 33 31 29 25 20 15 15 12 9 8 7 9 10
3 3 3 3 2 3 2 4 6 6 3 4 5 6 5 7 6 7 8 12 15 17 20 22 25 25 24 23 26 29 30 31 34 32 33 34 32 32 31 26 20 19 17 13 9 8 6 12 12
3 5 5 3 4 0 0 5 4 8 6 6 8 4 4 6 6 5 6 9 10 13 15 18 18 21 23 26 27 28 29 30 31 30 29 31 33 33 31 22 20 17 13 10 7 7 10 15 15

GFSSGP_925_spd_036.txt.gz
Wind_Speed
1 2 4 7 7 6 11 7 4 2 5 3 2 6 4 10 2 1 3 9 21 28 30 29 32 32 36 36 34 32 30 29 30 31 31 30 30 30 29 26 24 22 21 21 22 22 22 23 25
1 1 6 3 8 9 10 3 7 3 4 2 1 2 4 5 3 6 5 11 26 27 30 28 34 35 35 35 33 31 29 30 32 32 33 32 31 30 29 26 24 24 24 24 23 23 23 22 22
1 3 7 4 7 10 1 3 3 3 3 4 2 4 4 4 3 1 6 12 25 27 28 28 33 34 33 32 31 30 30 31 32 33 34 33 32 30 28 27 24 25 24 23 22 22 22 21 22
2 6 4 9 9 4 7 4 6 4 3 2 3 10 6 4 8 4 14 23 27 28 26 28 32 32 32 31 31 31 33 32 32 32 36 33 31 29 28 27 24 24 23 22 22 21 22 20 20
3 3 7 6 5 4 4 5 5 3 2 2 4 7 7 4 8 8 11 24 30 25 27 29 32 31 30 30 31 31 33 34 33 32 34 32 30 29 26 25 23 23 24 23 21 22 21 19 17
5 3 7 4 3 1 4 4 4 2 1 3 3 5 4 7 8 9 15 15 21 24 23 28 29 30 29 29 30 34 32 35 34 34 32 33 31 29 26 24 22 23 23 23 22 22 20 17 16
7 6 4 2 2 4 5 3 3 3 2 4 1 2 3 8 8 13 15 16 19 18 23 30 29 25 25 28 27 31 31 33 33 34 32 31 29 26 25 23 21 20 20 21 21 20 18 15 14
4 4 2 1 6 7 6 1 1 2 3 1 1 4 4 4 9 16 16 15 20 24 26 39 35 32 28 25 25 27 29 29 31 33 29 29 27 24 23 21 19 18 18 18 17 17 16 14 12
3 6 1 2 6 9 2 3 2 1 3 3 3 5 11 14 12 17 18 18 19 24 33 38 38 34 36 27 20 22 25 23 27 29 26 24 20 18 17 17 18 18 17 16 16 15 13 10 9
6 4 2 3 6 8 4 3 3 4 5 3 6 12 16 14 11 14 14 14 18 23 27 32 36 45 28 23 25 20 19 19 22 20 20 16 16 15 16 16 15 15 15 16 15 13 11 9 6
1 4 5 4 5 7 5 3 2 2 5 0 9 9 12 14 14 15 16 17 19 26 25 36 42 32 33 27 25 17 16 23 23 25 17 13 14 17 13 14 13 15 15 13 12 10 7 7 6
7 5 7 7 4 4 3 3 2 4 5 1 15 12 13 12 13 17 19 19 21 23 29 33 35 32 30 29 21 22 20 22 22 20 18 16 12 12 12 12 12 13 10 12 9 8 9 8 7
8 8 8 5 3 1 1 2 3 5 9 15 13 11 12 11 16 16 19 21 21 25 26 26 27 29 27 25 22 20 19 18 21 20 15 13 12 12 11 12 11 11 10 9 8 8 7 6 6
3 7 3 3 2 2 2 3 3 8 11 12 12 7 8 12 17 21 22 23 24 27 29 29 30 30 30 23 14 13 15 15 14 13 13 13 12 11 11 11 11 10 8 8 7 6 6 4 4
4 5 4 5 1 1 4 6 7 12 11 11 11 12 11 9 19 19 20 21 27 29 29 29 28 25 22 20 15 14 13 13 14 13 12 12 11 13 12 11 11 10 9 9 8 7 5 3 3
5 8 4 13 6 2 7 8 10 12 12 12 11 10 10 7 11 15 16 21 28 25 29 30 24 19 16 11 10 12 14 15 14 12 11 11 12 13 13 13 11 9 10 9 8 5 3 2 2
6 2 2 10 8 2 10 4 13 12 12 11 11 11 10 9 11 17 21 25 28 29 30 30 22 16 13 13 13 12 14 14 13 13 12 12 13 13 13 11 11 12 10 9 7 5 2 1 1
4 2 6 6 11 10 8 5 12 14 13 12 11 13 13 13 15 17 23 26 25 25 26 25 21 16 14 14 13 15 14 14 13 13 13 14 13 14 13 13 14 13 11 9 7 5 3 2 1
3 3 4 2 4 7 10 10 10 13 13 13 12 12 13 14 17 20 22 27 26 24 23 23 23 21 19 18 18 17 17 15 13 13 13 15 14 16 15 14 16 13 11 9 8 6 4 2 3
6 5 5 2 1 6 4 7 7 14 16 14 14 15 15 15 15 19 23 27 31 29 27 26 25 23 21 18 17 17 17 16 15 14 13 14 15 16 17 16 16 13 12 11 9 7 4 4 5
8 8 3 6 2 5 5 6 8 11 12 12 13 12 14 16 17 17 23 27 29 31 30 28 26 23 22 21 19 17 14 11 14 14 14 15 17 17 17 16 16 16 14 11 10 10 9 6 7
9 5 3 4 6 3 3 3 7 9 13 16 16 16 16 17 16 17 21 25 29 30 29 29 27 25 24 23 22 22 20 16 14 15 15 15 15 16 17 17 17 16 13 12 12 10 10 10 8
5 4 1 3 4 4 5 7 8 5 10 16 19 19 19 19 19 20 22 26 26 27 29 29 28 27 26 25 23 22 22 18 15 18 19 18 17 18 19 19 18 17 15 13 12 11 11 9 7
7 5 2 3 3 6 4 5 3 8 6 5 12 19 20 20 20 19 23 24 26 28 29 30 30 25 21 19 21 23 21 20 18 22 22 20 20 21 21 20 20 16 14 14 13 11 11 9 8
9 8 6 7 6 7 3 6 10 3 4 7 8 9 19 21 19 19 19 24 26 29 29 29 28 29 27 28 28 35 25 24 24 24 25 25 27 28 27 24 19 18 17 15 13 14 13 12 10
13 11 5 4 5 3 3 5 1 2 6 8 10 11 9 13 18 21 21 25 26 27 28 29 29 30 33 26 31 30 24 24 24 26 28 35 35 34 28 24 21 19 20 17 14 11 14 10 11
7 9 2 1 2 4 5 6 12 3 3 3 3 3 9 11 13 17 20 25 24 25 28 30 27 28 27 32 22 26 26 25 24 23 28 33 29 24 23 24 23 24 18 16 14 12 12 11 11
5 10 6 4 6 7 5 6 4 4 2 0 2 1 2 4 5 8 10 14 20 23 23 23 26 28 29 27 20 18 20 22 23 22 24 26 23 24 23 24 24 22 22 17 15 13 12 11 11
6 7 3 2 3 5 5 5 3 6 3 5 2 4 5 3 1 4 6 10 14 16 19 21 23 23 25 28 22 19 19 20 21 22 22 24 23 25 26 25 25 27 18 18 16 12 8 10 10
9 10 13 7 7 3 3 7 6 8 5 7 6 4 5 6 3 1 5 8 10 13 15 17 18 20 22 23 21 20 17 19 20 21 19 19 20 22 25 25 24 23 18 15 14 11 6 9 10

GFSSGP_925_spd_042.txt.gz
Wind_Speed
7 11 10 16 7 8 16 20 22 21 2 5 17 10 17 23 12 3 2 3 14 4 16 26 28 33 32 31 30 30 27 26 25 25 26 27 29 29 29 28 26 27 25 24 24 25 26 27 25
9 17 14 9 10 13 13 13 17 6 6 6 8 8 8 5 19 4 6 13 25 24 20 25 29 31 31 30 30 28 27 26 26 27 28 29 29 28 27 27 26 26 25 23 23 23 25 24 23
10 13 8 11 13 14 12 9 13 10 4 4 2 15 5 4 10 3 11 15 23 23 22 23 28 29 30 30 29 27 26 27 28 29 30 30 29 27 26 27 26 26 24 23 22 24 23 22 20
12 12 8 10 14 18 14 1 6 13 16 21 17 9 10 9 3 0 6 23 18 21 25 26 28 31 28 27 27 27 26 29 31 31 30 29 29 29 29 27 26 26 24 23 22 23 21 20 18
14 8 11 15 20 17 8 18 6 10 4 3 23 5 5 2 12 9 6 17 32 28 23 26 24 29 31 30 27 26 28 29 31 31 31 30 30 30 30 29 28 26 24 24 22 21 20 19 18
10 12 12 10 13 18 17 24 19 8 9 14 12 10 10 6 8 11 10 7 20 25 22 25 25 28 33 32 29 28 29 30 30 30 30 30 29 29 28 27 26 25 25 24 22 19 18 18 17
13 12 15 16 6 11 4 18 18 9 12 11 14 17 6 2 4 4 11 12 19 19 23 25 24 29 30 29 28 31 32 30 29 28 29 29 27 27 26 25 24 24 25 22 19 17 16 16 17
9 12 20 10 3 2 10 13 12 10 5 9 7 7 9 3 8 12 19 19 17 22 33 24 14 23 24 26 30 30 31 30 27 27 27 26 25 25 25 25 24 24 22 20 17 15 14 13 15
15 12 11 14 3 6 9 2 8 16 7 16 10 12 9 9 10 13 22 22 23 27 20 29 27 26 24 25 28 30 30 28 27 28 25 23 24 24 20 22 22 20 20 17 14 12 10 13 17
10 12 14 8 10 10 13 9 13 10 3 13 8 9 10 10 13 14 14 15 19 21 28 34 32 27 31 31 31 31 33 29 27 28 24 20 21 17 20 19 18 17 15 14 12 10 9 8 8
14 13 10 11 7 10 14 9 15 8 10 12 8 3 9 12 14 13 13 15 16 18 31 30 31 30 30 31 32 30 28 28 30 24 15 22 19 15 18 16 15 14 12 13 11 6 5 6 9
6 14 8 10 12 9 14 2 13 15 11 15 10 8 8 9 8 13 13 14 18 22 19 27 32 33 29 27 29 31 27 27 26 20 20 20 18 14 15 14 13 13 10 10 7 10 7 8 8
11 14 10 10 6 10 11 9 13 14 16 15 10 10 9 8 17 15 16 17 20 22 22 25 29 34 32 32 31 27 25 23 20 21 17 17 15 14 13 13 11 12 14 9 9 5 7 7 6
8 10 13 9 10 7 3 14 21 10 12 13 12 11 10 10 15 15 15 16 20 24 25 28 29 31 31 29 31 26 22 19 20 17 11 12 14 11 12 15 13 14 10 10 9 10 7 7 3
11 15 15 15 9 1 11 9 6 22 4 14 13 11 13 12 15 12 16 17 20 23 28 28 28 30 33 29 30 21 22 19 18 18 15 15 12 13 11 13 11 11 12 11 11 12 8 6 4
15 18 16 10 15 8 12 4 11 13 20 16 15 15 11 13 15 17 18 21 23 23 22 25 29 33 34 31 30 26 22 19 23 24 15 15 13 14 14 15 14 13 13 10 8 10 9 7 5
16 15 15 7 1 8 6 3 17 13 11 16 16 12 13 14 16 19 20 23 22 23 25 21 27 39 41 33 32 36 27 27 24 24 20 18 20 12 16 13 14 15 12 12 13 11 9 10 6
7 12 11 7 6 10 16 12 11 19 11 11 11 12 10 12 19 25 23 24 25 26 26 28 32 39 40 41 31 28 24 24 23 22 18 21 20 17 16 16 17 15 14 14 14 12 9 6 9
15 9 21 7 6 11 19 22 22 22 17 14 11 14 12 12 10 28 28 29 26 29 29 30 33 32 30 29 20 16 17 17 21 13 16 15 17 17 18 17 19 19 17 17 16 14 13 9 8
14 13 18 5 11 5 9 11 20 19 19 16 15 15 17 16 17 20 28 29 30 29 31 30 30 28 28 23 24 20 18 18 21 22 18 18 19 21 21 19 18 17 16 17 19 15 14 13 12
14 16 16 13 6 9 10 12 4 15 16 16 17 18 18 19 21 18 24 27 30 35 34 33 32 31 30 26 26 23 23 24 25 23 23 22 20 20 20 20 17 17 18 21 18 18 15 14 13
15 14 13 10 13 9 5 11 7 18 15 14 14 15 14 17 21 21 24 29 31 34 38 36 33 31 30 29 24 26 21 22 22 22 20 21 22 22 19 21 21 18 22 17 18 19 17 15 6
13 1 10 13 13 14 14 7 5 10 13 18 16 16 16 16 19 23 24 34 37 34 37 37 37 35 35 33 29 26 27 25 22 23 20 17 17 23 23 18 23 21 23 18 22 21 19 13 13
9 10 14 11 11 11 15 11 6 2 6 9 18 18 16 16 18 19 32 36 37 39 37 36 34 33 33 37 31 23 24 20 25 20 21 19 21 23 22 21 21 24 22 22 19 18 19 15 13
9 11 8 9 9 9 17 11 6 11 17 16 14 15 19 18 14 16 20 25 34 37 40 39 38 34 32 38 37 31 26 26 23 22 23 23 23 22 24 23 23 27 26 22 19 19 17 18 17
12 15 8 4 3 9 14 5 7 17 9 4 1 3 10 19 18 17 17 24 31 37 39 38 38 36 34 30 37 37 37 39 34 31 28 32 30 30 25 28 31 29 29 23 19 20 20 16 15
14 15 15 7 3 5 10 7 7 10 6 4 4 2 5 7 19 21 21 26 30 34 37 40 36 36 34 36 38 42 35 35 31 29 29 30 29 26 26 28 30 30 26 23 25 25 18 14 14
16 12 11 7 5 6 8 10 3 4 5 8 4 6 3 1 5 12 13 17 29 36 40 41 41 38 35 33 32 32 30 25 25 21 25 25 23 27 27 29 28 29 25 26 27 22 17 17 13
10 12 8 13 11 6 4 5 7 5 11 3 5 6 5 5 1 4 5 5 16 31 28 39 38 33 33 36 32 32 23 18 18 20 20 21 25 26 25 25 25 26 28 27 24 20 17 16 13
18 16 17 10 9 5 1 6 8 8 15 3 1 4 5 3 2 5 4 3 5 6 9 33 35 33 30 33 31 29 26 20 20 18 19 21 24 23 17 18 21 23 27 24 19 19 14 14 16

GFSSGP_925_spd_045.txt.gz
Wind_Speed
7 6 9 2 2 2 7 10 12 19 5 4 4 8 7 2 4 7 5 11 22 25 7 21 27 27 29 30 31 31 29 28 30 31 33 35 36 36 34 32 31 31 28 27 27 29 28 28 26
7 8 5 3 2 3 9 15 18 4 1 9 4 4 6 5 4 3 3 10 19 23 26 25 23 27 29 31 31 29 28 28 31 33 34 35 35 35 35 31 31 29 28 26 27 28 27 25 22
9 6 2 3 3 9 6 7 11 6 6 4 5 13 6 4 5 5 7 5 8 13 28 39 36 29 30 29 30 28 28 30 32 34 34 34 33 34 34 31 31 29 26 25 26 27 25 21 20
2 3 4 1 12 18 4 8 7 9 9 22 6 10 4 5 3 11 11 10 15 12 19 28 35 36 34 31 31 29 29 32 32 33 34 33 32 33 33 30 29 28 26 25 26 24 20 19 19
5 2 3 5 9 10 2 6 6 16 6 16 11 4 1 9 3 3 2 7 15 20 15 17 23 33 32 31 30 29 32 33 33 33 33 32 31 31 31 30 27 27 27 26 24 22 20 17 17
2 3 5 10 8 4 3 4 5 14 5 2 6 3 1 7 3 2 4 15 18 16 11 18 23 37 32 27 29 30 34 33 33 33 33 33 33 32 31 29 27 27 26 25 23 21 20 17 18
6 1 7 11 15 4 3 5 6 4 3 3 10 5 6 4 4 3 9 21 18 18 19 20 22 24 25 25 30 33 34 34 33 33 33 32 32 32 30 27 27 26 25 23 21 20 18 19 19
4 3 9 10 13 1 0 3 7 8 5 4 4 5 6 3 7 12 15 22 20 23 23 20 18 16 34 31 31 34 33 33 32 31 31 30 29 29 28 27 26 24 22 20 19 18 18 20 17
3 3 8 14 6 1 6 5 5 10 4 8 7 4 6 11 12 17 21 22 18 21 27 16 18 17 31 27 27 30 29 31 30 28 27 28 28 28 27 26 25 22 19 18 16 15 19 20 16
3 3 11 10 5 6 13 9 6 5 17 1 3 5 8 14 14 12 12 12 18 18 17 18 29 29 31 27 27 32 30 31 31 28 26 28 25 25 26 24 22 19 16 15 13 12 12 9 11
8 6 10 8 5 8 6 7 6 7 2 7 7 7 9 13 13 13 10 15 13 18 25 29 30 31 31 36 30 27 32 32 31 28 26 23 22 24 23 22 19 16 13 12 11 10 10 12 9
5 5 7 7 4 5 9 4 10 9 11 8 8 8 7 9 9 12 11 16 18 19 24 34 33 33 34 34 33 26 30 35 31 23 29 24 23 24 22 19 18 16 14 13 8 11 10 9 7
4 6 7 9 5 4 14 16 8 13 4 4 8 7 9 12 11 12 12 19 21 22 27 33 36 39 35 35 36 32 33 34 23 29 28 22 23 22 19 18 16 14 13 12 10 11 9 7 6
6 5 7 9 9 4 7 6 4 6 12 7 7 4 9 11 12 13 12 13 18 22 22 30 33 39 39 39 38 34 33 31 26 25 24 21 19 18 17 14 12 14 13 12 12 7 7 8 4
13 8 7 13 3 3 7 5 4 4 10 6 9 6 8 10 11 11 15 16 22 20 24 26 32 38 39 37 36 36 34 27 15 21 21 16 13 10 12 10 15 14 16 14 12 10 10 10 5
8 7 4 12 9 2 6 1 3 6 6 12 9 8 10 8 13 16 16 19 24 27 26 25 30 36 33 33 36 38 34 25 18 25 23 16 10 12 11 14 15 17 15 16 18 15 12 10 10
5 10 11 11 7 6 3 5 6 5 8 12 11 11 10 9 13 17 19 19 22 26 28 28 34 36 33 33 37 34 32 34 31 27 26 14 14 12 15 16 17 17 19 16 14 14 14 14 11
9 6 3 1 4 4 4 7 5 4 8 16 13 12 13 13 12 21 21 22 23 26 24 31 35 35 35 32 33 34 36 34 36 26 17 18 19 21 17 18 17 20 20 16 16 17 13 16 14
14 13 8 6 8 7 12 7 12 7 1 15 13 10 15 14 18 25 28 26 28 27 27 28 28 36 38 33 32 29 34 37 32 25 29 26 24 20 22 23 18 22 21 21 20 18 20 12 12
13 10 7 7 2 4 6 15 10 8 7 9 15 12 9 13 16 21 27 28 29 30 28 30 33 37 37 34 36 31 35 34 36 34 27 24 25 23 26 24 20 27 22 21 23 23 19 18 13
13 5 6 3 5 7 6 0 9 10 11 13 15 16 14 17 20 19 25 29 30 31 31 36 37 40 42 37 29 27 26 25 29 32 31 28 26 27 29 24 22 25 22 23 25 26 22 17 16
6 8 5 4 2 4 2 4 11 19 19 19 17 17 18 17 18 20 25 28 31 35 37 38 40 41 38 34 29 30 24 24 29 34 31 31 34 31 25 23 26 22 22 24 25 25 23 16 18
9 6 4 2 6 4 8 2 9 17 15 20 19 19 19 21 22 23 24 34 35 35 37 37 36 36 36 36 34 35 32 33 31 31 32 30 28 26 27 26 25 24 25 26 23 26 24 24 18
7 3 2 3 1 4 7 1 5 12 8 16 19 20 20 22 24 24 35 37 39 39 38 38 38 37 36 40 41 37 30 36 33 31 32 25 27 29 30 27 24 27 25 25 23 22 20 26 19
6 3 1 3 3 6 8 3 7 9 10 21 19 20 21 21 25 24 23 28 34 39 42 42 41 39 39 42 44 43 41 40 38 39 37 33 29 28 26 29 26 26 26 26 24 22 23 23 24
8 7 5 4 2 4 7 4 6 11 8 7 10 21 19 20 21 26 27 33 38 42 43 43 42 41 42 44 48 46 46 41 39 39 40 34 34 31 33 32 28 24 26 28 25 24 25 22 24
5 4 8 7 2 3 3 8 9 13 6 6 7 9 15 16 17 21 27 36 37 40 43 43 43 43 43 42 47 47 48 35 35 40 37 34 32 32 30 30 28 24 27 29 29 28 26 28 23
10 4 3 2 4 2 5 6 6 1 6 2 6 7 4 8 17 15 16 30 34 37 40 41 43 47 50 47 48 47 42 39 34 33 32 31 28 27 29 29 28 28 30 29 28 24 26 25 20
4 7 4 7 5 5 2 4 6 7 3 3 7 9 8 6 8 9 9 22 26 27 37 40 39 31 34 37 40 40 41 45 34 28 28 26 25 27 28 29 29 30 29 27 25 25 25 20 16
12 11 8 5 5 3 5 6 3 8 6 7 9 7 8 7 6 9 9 15 21 27 37 37 44 44 42 42 36 38 33 30 21 25 26 22 23 26 28 28 26 24 25 26 25 25 22 19 18

GFSSGP_925_spd_048.txt.gz
Wind_Speed
3 3 4 4 3 4 4 7 5 10 6 5 4 6 8 4 4 7 2 9 18 25 27 26 27 16 25 30 29 29 32 36 39 41 42 40 39 37 36 36 35 33 30 30 29 28 26 25 25
3 3 3 2 3 2 5 5 5 4 3 11 7 2 5 2 2 3 3 19 30 30 31 33 32 21 22 28 28 29 32 36 38 41 41 41 39 38 37 36 34 33 30 27 26 25 25 25 25
5 2 3 3 3 3 4 3 7 5 9 3 5 5 4 3 3 6 2 18 29 25 28 38 29 35 27 34 32 31 33 36 39 42 42 41 39 38 37 36 35 32 29 26 25 25 24 22 19
4 5 4 2 7 7 7 6 6 3 5 6 4 5 0 0 4 3 1 17 15 26 31 40 34 40 40 35 35 33 34 36 39 41 40 40 39 38 37 35 33 31 28 26 26 24 23 22 22
2 3 2 2 7 5 4 1 7 4 3 5 2 4 3 2 2 2 3 13 14 19 31 24 32 42 34 36 36 37 37 36 38 40 40 39 39 36 35 33 31 30 29 26 24 23 24 25 26
3 3 1 3 4 6 6 5 5 5 2 1 4 2 4 9 8 4 1 11 13 21 18 24 30 36 32 34 36 37 38 35 37 38 39 39 37 35 33 32 31 29 27 24 22 21 23 30 24
6 3 4 5 10 8 2 6 3 7 3 3 1 1 3 8 16 7 3 9 16 11 12 19 24 30 22 32 24 33 36 34 35 35 36 38 36 34 32 30 30 28 25 22 20 20 22 24 25
5 3 4 5 4 6 3 4 3 6 2 3 2 4 1 4 9 7 7 8 14 13 21 24 23 26 27 31 33 23 33 33 33 35 36 37 35 33 30 30 28 26 23 22 18 21 20 20 23
4 1 5 6 5 5 1 4 3 1 5 2 3 2 3 1 4 6 11 14 17 14 26 26 36 29 33 32 26 28 29 32 33 35 35 34 33 31 30 28 26 24 22 19 19 18 17 17 19
4 3 7 7 2 4 3 4 5 3 2 2 3 8 3 5 2 2 2 9 16 21 26 34 35 37 38 38 31 29 31 33 33 34 33 33 32 31 30 27 25 22 20 17 18 15 12 12 12
4 6 9 14 7 9 7 3 4 8 3 5 3 5 4 3 2 4 3 5 11 20 20 30 29 32 39 40 36 28 34 35 35 33 34 32 31 31 29 27 24 22 19 16 15 10 8 11 9
2 12 11 9 7 5 7 8 4 2 2 7 8 7 7 5 3 3 5 8 14 16 21 27 36 39 37 40 40 36 37 37 36 35 32 32 32 30 29 26 23 21 18 15 12 13 11 9 10
6 6 9 5 9 5 7 6 5 4 5 5 5 7 8 8 5 3 2 3 11 14 21 28 34 37 37 33 38 39 41 39 37 35 32 32 31 30 27 23 21 19 17 13 11 12 10 9 7
3 7 8 7 4 9 8 3 1 6 8 8 7 7 7 7 5 5 3 3 7 10 18 33 34 35 37 38 36 38 40 37 37 35 31 31 31 28 24 22 19 17 17 15 13 12 12 10 5
5 6 9 6 2 6 9 2 5 12 13 12 8 8 5 5 8 9 12 11 12 12 12 30 37 38 41 38 35 38 32 33 37 34 28 30 27 25 22 19 17 18 17 13 16 14 13 11 8
5 3 4 7 1 4 3 6 4 13 14 12 9 7 7 6 7 8 9 10 12 14 16 14 31 38 35 37 37 39 34 36 34 30 27 26 22 19 17 13 16 18 16 18 18 16 14 14 11
2 5 5 9 4 6 4 5 6 12 13 12 10 7 8 5 7 12 11 12 15 17 19 18 25 33 37 42 37 33 33 35 29 30 27 20 15 15 15 14 16 17 22 22 21 18 18 17 15
6 4 2 6 5 4 5 7 4 10 12 14 10 9 9 8 9 14 15 14 15 17 20 25 24 28 33 35 32 27 31 36 30 28 28 24 11 11 14 16 16 18 21 21 22 23 19 16 16
6 6 10 11 8 4 9 6 9 8 7 12 11 12 11 11 11 16 18 20 20 19 19 20 31 32 34 34 34 30 28 34 33 30 30 25 18 16 18 18 18 19 25 25 24 20 19 17 18
9 11 16 8 5 6 6 13 3 9 6 16 15 13 14 11 10 14 17 22 24 24 26 25 25 36 33 32 31 33 34 37 40 36 37 35 27 20 23 22 22 23 26 27 25 25 23 17 19
13 11 12 8 4 2 6 5 6 6 4 7 13 14 15 18 16 14 19 21 24 24 29 31 30 35 35 38 36 29 30 29 32 35 38 39 29 29 29 27 25 26 28 31 29 29 29 26 22
13 13 9 4 3 3 4 4 5 6 7 7 12 15 16 18 16 16 20 24 27 29 30 31 35 35 37 33 32 30 27 27 32 32 35 37 31 30 26 28 27 27 32 33 30 29 30 27 24
14 10 8 7 4 3 4 2 5 4 6 13 15 18 17 18 20 20 22 31 32 31 31 34 34 36 34 37 33 31 27 27 27 31 34 37 38 35 32 30 29 31 34 34 29 28 31 31 27
11 3 1 3 1 1 3 5 5 6 11 16 17 19 20 19 21 21 31 31 32 34 34 34 35 35 38 38 36 33 32 30 33 36 39 40 40 40 35 34 34 34 34 28 28 28 31 31 26
5 5 2 3 3 6 4 2 7 7 14 19 20 20 21 20 20 21 21 26 31 34 37 36 37 36 37 38 40 42 40 35 36 42 40 38 38 39 37 35 35 29 29 29 28 30 31 31 25
7 8 6 6 3 4 4 5 6 5 1 6 16 22 21 20 22 23 24 31 36 39 40 40 41 41 43 43 43 45 44 37 41 42 39 42 41 40 35 33 32 31 30 30 29 29 30 29 27
6 4 7 7 3 2 4 7 8 6 4 2 10 9 15 18 21 24 23 33 35 38 42 46 44 44 45 46 42 42 40 40 37 42 41 42 42 40 36 35 32 29 30 29 30 29 28 28 28
11 7 4 2 5 3 3 4 5 6 2 4 4 12 14 17 17 20 19 29 35 39 44 45 44 48 45 36 36 39 40 38 36 39 44 45 43 43 37 34 29 30 30 28 28 30 29 27 22
3 4 3 6 5 5 1 5 6 7 6 6 6 8 9 15 17 18 20 30 36 37 35 41 43 39 39 41 45 48 46 42 38 36 41 42 43 40 37 34 29 29 30 30 27 29 28 24 21
6 9 8 5 4 3 4 7 3 8 7 8 5 6 5 7 11 17 18 29 33 35 36 39 41 39 44 47 43 40 31 34 32 34 34 25 31 37 34 28 25 28 31 27 28 28 25 24 26

GFSSGP_925_spd_051.txt.gz
Wind_Speed
1 1 2 5 4 4 4 5 3 8 5 3 5 6 7 4 1 3 2 7 17 24 27 27 30 33 31 29 28 30 30 30 31 33 37 39 41 41 41 41 39 38 35 33 31 29 27 24 23
2 3 4 3 4 2 5 5 5 4 4 4 1 3 2 3 1 4 1 10 25 30 29 30 31 31 30 28 27 28 29 31 31 33 34 37 39 40 40 40 38 37 34 31 28 25 22 20 20
3 2 3 4 3 3 4 5 5 4 4 4 3 2 1 2 4 0 1 15 25 29 30 32 32 31 30 28 34 31 32 33 32 33 35 38 39 40 41 40 37 34 32 29 26 24 26 26 29
3 5 4 3 5 8 7 7 2 3 5 3 2 3 2 4 2 3 3 12 19 22 26 28 30 30 26 27 26 31 34 35 34 34 36 38 40 40 40 38 34 32 31 27 24 22 23 26 26
4 3 3 2 5 5 6 4 4 2 4 4 5 2 2 2 1 3 7 13 21 22 26 28 29 27 29 30 27 25 32 34 35 34 35 37 40 39 38 36 34 31 30 29 26 23 28 29 26
4 3 4 3 5 5 5 0 3 2 2 3 2 1 2 2 2 4 9 16 21 26 33 31 34 26 26 34 39 34 35 35 35 34 34 39 40 40 37 35 34 32 31 31 29 27 30 27 25
6 4 4 3 5 6 3 1 3 3 5 4 2 3 3 3 5 4 5 14 18 20 25 34 35 24 22 29 39 34 38 35 35 35 35 38 38 37 36 35 34 31 30 31 30 29 26 23 20
5 4 1 5 2 5 4 3 4 8 7 2 2 4 2 4 2 4 7 11 16 15 20 20 23 31 30 44 36 27 31 34 34 35 35 37 37 36 35 34 32 30 30 31 29 28 25 21 19
4 3 2 5 2 5 3 3 3 3 1 1 2 2 1 5 5 7 9 14 18 20 22 27 30 36 38 33 34 24 30 34 35 36 37 37 36 34 34 33 31 28 27 28 28 26 25 23 23
4 4 7 7 5 6 4 6 6 1 2 4 2 4 4 8 7 4 4 7 15 21 30 33 31 37 37 32 35 22 26 29 33 36 37 37 36 34 32 31 29 27 26 25 24 22 22 19 19
4 5 4 13 10 7 5 3 3 5 6 5 5 7 5 4 8 5 6 6 13 21 21 31 37 40 41 44 51 36 23 21 29 35 35 37 36 33 31 30 28 27 25 23 20 17 17 17 17
2 8 4 7 6 7 5 4 4 6 3 0 9 7 2 1 2 5 5 6 12 21 25 33 36 44 41 45 52 49 39 35 33 37 36 37 37 34 31 28 26 24 23 21 17 16 15 13 15
5 5 4 5 6 5 6 6 4 4 2 1 3 8 5 3 2 7 7 7 8 17 26 31 35 36 43 37 38 42 39 41 44 38 36 37 38 36 32 28 25 23 21 19 18 17 14 12 12
4 5 9 5 7 7 8 3 3 5 5 4 3 6 7 4 3 4 5 6 8 12 20 31 33 34 41 38 36 34 39 42 38 38 38 38 36 34 31 28 23 21 20 17 16 13 12 12 11
3 5 7 6 7 6 5 2 8 5 8 7 6 5 7 6 5 6 6 5 8 12 19 28 32 34 36 32 32 34 42 41 40 40 39 37 34 32 29 25 23 20 19 15 13 11 13 13 12
5 1 2 3 6 4 6 11 6 8 10 8 6 6 7 6 6 6 6 7 7 9 13 19 31 33 33 33 32 38 40 41 37 39 37 34 33 29 25 23 23 20 19 15 16 16 16 14 12
4 5 4 8 2 3 4 8 5 9 9 8 7 7 7 7 5 7 8 9 9 10 13 15 20 35 33 32 29 36 33 36 36 35 35 32 28 25 22 22 20 20 18 16 18 19 17 16 14
5 4 2 3 5 1 4 13 1 8 8 10 7 7 6 7 7 10 10 9 9 9 10 13 22 31 35 33 34 32 29 30 33 30 30 28 22 22 22 18 20 19 17 18 21 21 19 17 16
2 3 5 6 9 4 13 9 8 8 5 8 8 8 7 7 6 12 12 11 11 12 13 15 21 29 34 32 36 32 32 30 31 30 25 21 16 16 20 16 16 17 18 21 23 25 23 19 18
5 5 11 9 9 7 8 11 5 10 12 13 12 9 9 5 6 9 14 14 14 15 17 19 20 29 32 32 27 29 29 29 30 32 32 29 18 14 15 16 15 17 20 22 26 27 25 21 20
7 7 10 8 8 4 1 8 4 5 5 8 9 9 7 10 9 10 13 17 21 21 19 18 23 26 23 24 25 24 27 32 24 31 33 32 31 20 15 13 17 19 21 26 29 30 28 22 22
7 10 11 8 2 5 5 5 5 3 7 8 12 11 12 12 8 7 12 17 23 27 25 24 25 29 28 26 25 26 26 24 25 30 35 35 34 29 23 21 25 26 26 28 32 32 31 26 23
9 5 9 9 7 3 2 2 7 4 6 11 15 16 15 15 14 13 12 21 24 24 28 28 28 30 30 30 30 31 28 25 23 25 27 34 40 38 34 30 30 29 30 29 32 33 33 30 27
10 4 3 0 4 2 6 6 5 5 7 5 10 15 16 15 14 13 17 16 19 24 24 28 31 33 37 37 37 36 34 33 33 30 30 33 37 41 41 38 35 31 31 31 32 33 32 32 34
5 2 3 3 0 5 5 2 8 8 11 12 12 17 18 17 17 15 14 17 21 25 29 30 32 32 36 40 42 41 41 37 32 33 35 35 40 43 45 42 41 38 35 32 28 33 34 32 33
6 9 5 6 4 4 1 5 6 7 9 9 8 14 14 16 16 18 19 23 26 29 31 31 33 34 36 39 40 41 40 37 37 35 36 38 40 42 43 40 38 35 37 27 28 35 33 31 34
4 5 7 5 3 2 4 6 7 7 10 10 10 8 14 18 18 21 19 28 29 32 34 36 35 38 38 40 40 41 42 41 38 37 38 39 40 42 44 43 38 38 43 39 37 31 33 34 34
7 5 2 2 4 4 3 3 5 8 5 5 6 9 13 17 17 16 17 25 31 34 35 37 40 38 34 34 38 41 41 40 41 36 37 42 43 41 41 42 41 38 35 34 32 32 31 30 28
2 3 2 3 4 6 2 5 7 8 8 5 1 4 9 10 15 18 18 28 33 30 34 39 37 35 37 44 41 40 40 38 35 37 40 40 39 39 40 39 39 41 35 35 32 32 30 28 30
3 6 9 5 4 2 4 8 5 8 6 6 4 3 6 9 11 14 17 23 28 34 36 41 36 42 47 45 40 40 39 35 35 38 37 39 43 39 36 32 42 44 38 36 34 34 31 29 31

GFSSGP_925_spd_054.txt.gz
Wind_Speed
4 4 3 4 4 5 3 5 3 5 3 4 3 1 3 4 1 3 2 8 14 28 28 27 29 29 27 31 34 39 42 41 38 33 32 32 32 32 35 37 37 35 34 32 31 31 30 29 29
4 5 4 3 5 3 5 4 5 5 3 5 3 2 3 4 3 2 1 8 18 29 27 27 30 29 31 33 38 35 34 39 39 35 31 31 32 33 34 36 37 35 32 29 28 25 25 28 29
4 2 4 4 4 3 4 5 5 4 4 2 2 1 1 3 3 2 3 7 17 28 30 30 31 29 29 31 32 36 36 37 35 36 32 31 31 32 36 38 37 34 29 26 24 23 26 28 29
3 5 4 4 3 7 7 7 5 6 1 2 3 5 1 3 2 3 3 8 19 25 28 30 29 30 32 34 34 36 36 35 38 36 32 30 30 32 34 36 35 32 29 27 25 29 31 29 29
4 3 4 2 5 5 5 5 3 3 4 1 2 3 3 3 5 7 3 5 18 22 26 28 32 33 32 32 32 36 38 37 39 38 32 28 29 32 33 35 32 30 27 26 27 31 30 30 30
4 3 4 2 4 5 6 5 4 5 2 2 2 1 4 1 3 8 8 8 15 20 23 32 30 29 28 29 28 32 34 38 37 42 32 29 29 31 34 35 34 30 27 27 31 32 30 29 28
6 3 4 3 3 5 4 2 5 3 2 4 1 2 2 1 6 8 8 9 14 20 22 24 31 26 22 24 35 35 31 35 37 39 35 34 31 33 35 35 34 31 28 29 32 32 30 27 26
5 4 3 4 2 5 4 2 3 3 5 0 2 4 4 1 4 2 2 6 11 10 20 24 20 19 16 16 29 36 34 32 37 39 36 35 32 32 34 35 35 34 31 32 32 29 27 26 24
4 4 2 4 4 5 3 4 3 0 3 2 2 1 1 3 2 4 5 8 8 12 15 23 12 17 16 16 27 30 30 31 36 38 37 34 32 33 36 35 35 32 31 29 28 27 25 24 23
4 4 8 7 5 8 6 8 6 3 3 5 1 1 3 4 3 6 7 4 11 17 35 24 19 24 26 38 41 32 30 33 35 38 35 35 34 34 35 34 34 32 31 28 27 28 27 25 23
6 6 5 6 11 9 5 4 6 3 5 7 5 6 6 5 4 3 4 9 7 19 26 29 29 35 41 34 43 37 30 29 30 38 35 36 35 33 33 34 35 32 29 28 25 25 24 23 21
3 7 5 7 3 3 5 5 3 7 4 3 6 5 5 6 4 5 5 8 13 18 24 27 35 38 37 36 37 40 34 29 33 35 36 37 35 34 33 32 32 33 27 24 24 23 21 20 18
5 4 4 7 9 5 5 5 4 7 5 4 2 5 4 6 7 5 6 8 11 14 22 31 36 32 42 35 37 40 36 30 33 39 38 38 36 34 32 31 29 28 25 22 22 21 19 18 18
5 4 8 6 4 4 4 1 3 5 7 6 4 2 1 2 4 6 5 9 11 15 23 29 35 32 34 33 39 39 40 34 29 32 34 39 37 35 32 29 27 25 21 20 20 18 18 17 14
2 4 6 5 3 4 5 4 10 6 7 8 6 6 5 3 3 5 6 8 12 16 19 27 30 35 35 33 37 38 37 37 40 33 32 37 38 34 32 29 27 24 21 20 19 18 16 15 14
1 3 3 4 5 1 8 10 6 7 12 9 7 6 6 5 5 6 7 9 9 11 19 21 28 35 33 33 33 32 33 33 37 38 37 39 38 34 30 27 25 24 20 19 17 15 15 14 13
5 3 4 7 4 4 3 8 3 4 5 7 7 9 7 7 7 9 11 11 11 10 13 23 22 32 33 32 33 34 34 32 31 37 40 39 37 33 28 25 24 23 21 19 18 16 14 15 14
5 4 4 6 2 2 4 13 10 6 7 8 8 7 8 8 11 14 12 10 10 11 11 13 16 30 35 34 31 29 36 34 33 36 39 39 37 30 25 23 23 21 22 20 19 17 17 17 16
5 4 4 5 4 3 8 10 17 5 6 9 8 8 8 8 7 19 16 14 12 10 10 10 17 25 32 34 32 30 34 31 29 33 37 32 30 23 24 23 20 23 24 20 20 20 20 17 18
4 3 5 8 7 6 8 10 6 5 7 10 10 9 9 6 7 12 17 16 15 15 13 12 19 28 31 35 24 26 29 36 31 23 31 29 27 23 24 22 18 23 25 19 22 23 22 20 19
5 6 4 8 6 4 3 8 5 4 4 5 8 7 7 11 11 11 14 16 16 15 16 17 20 23 27 29 25 21 24 32 31 21 27 28 28 21 17 20 18 20 17 18 21 24 25 23 22
9 11 8 6 1 4 3 5 6 4 7 6 8 10 11 10 9 9 13 17 20 21 18 19 21 24 29 31 32 30 22 30 28 27 24 29 36 30 21 17 15 16 16 18 19 22 27 26 25
8 8 8 5 5 1 3 2 7 2 6 9 10 14 13 12 13 13 14 21 22 27 24 22 23 25 26 33 32 35 30 31 30 34 30 32 32 37 30 24 20 20 21 21 21 26 29 31 29
4 3 3 2 3 3 7 6 5 5 8 7 6 10 13 12 12 11 16 21 23 27 28 28 26 31 31 33 34 37 35 33 35 33 33 33 35 38 39 32 29 27 23 24 25 28 30 32 34
4 4 1 2 1 5 4 5 8 8 10 10 10 9 12 11 12 11 14 16 23 28 32 32 32 31 34 34 34 36 39 39 39 41 36 35 37 39 44 42 41 37 35 30 30 30 32 31 30
6 7 5 6 4 4 1 5 6 8 10 9 8 7 8 11 12 13 15 19 25 30 32 34 33 31 37 38 39 39 42 43 42 41 40 41 40 41 43 44 44 42 38 36 35 34 31 30 33
4 5 6 6 1 2 4 6 9 8 8 9 9 6 9 12 13 16 14 22 25 28 33 37 34 34 35 38 39 41 43 41 36 37 40 44 45 43 38 35 35 36 38 36 32 37 36 37 36
7 6 4 1 5 5 3 3 5 5 10 8 8 8 9 9 9 10 13 18 25 29 32 36 36 36 35 39 41 37 38 37 35 31 35 35 37 39 38 35 34 37 40 38 39 44 42 43 35
3 3 1 4 5 4 2 5 8 9 6 6 8 7 9 9 9 11 12 19 20 23 29 34 35 37 39 42 39 38 38 37 38 38 37 36 37 38 38 37 36 38 37 36 35 40 38 39 36
4 7 8 5 5 3 3 6 5 9 7 5 7 8 6 9 10 10 10 12 19 23 26 30 30 32 40 36 33 35 32 35 39 40 39 40 42 41 41 39 39 40 38 34 33 35 37 36 34

GFSSGP_925_spd_057.txt.gz
Wind_Speed
6 5 3 3 2 1 1 2 2 5 3 2 1 4 3 4 6 3 4 12 8 23 29 27 27 28 33 38 40 38 39 40 39 39 40 35 33 34 34 33 33 32 30 29 27 26 26 26 25
6 5 3 2 2 1 1 2 5 6 4 2 3 4 4 4 3 2 0 7 9 22 23 21 29 31 35 37 37 39 39 38 39 40 41 38 33 34 34 34 34 33 32 29 28 27 26 27 29
5 3 0 3 3 2 3 5 7 4 5 4 3 3 2 3 2 1 3 5 12 22 23 23 30 34 33 34 38 39 39 39 37 37 39 39 37 36 36 35 34 33 32 29 27 27 26 28 31
3 2 3 1 2 4 4 4 4 6 2 6 2 6 3 1 1 1 4 3 13 24 30 29 34 35 36 37 39 40 39 39 39 38 40 38 40 38 36 35 34 32 29 26 26 27 28 30 30
5 2 1 1 3 4 5 5 5 6 3 1 2 2 4 1 2 2 3 2 13 25 29 29 31 31 34 35 38 38 39 39 40 40 40 43 40 38 36 34 31 30 29 29 28 29 30 29 28
3 1 1 3 3 4 5 6 2 5 4 2 3 4 2 1 3 5 6 3 12 16 26 26 29 30 31 34 35 38 39 39 40 41 41 44 42 38 35 32 30 30 31 32 31 31 30 29 28
3 2 2 2 3 4 3 5 4 3 6 3 1 3 1 3 5 8 5 6 10 16 23 23 19 23 26 27 30 34 39 38 40 41 42 44 42 37 32 31 31 30 31 33 31 30 29 29 28
4 2 4 4 3 4 3 4 3 6 5 3 3 4 2 2 4 4 2 2 6 14 17 16 19 21 23 21 24 28 32 38 41 41 41 43 42 38 33 31 27 28 32 32 31 30 28 27 26
3 2 4 4 6 2 3 5 3 0 3 3 4 2 1 2 2 1 2 3 5 9 14 14 17 29 28 29 25 27 31 36 41 42 42 41 39 35 32 27 28 29 33 33 30 28 27 26 25
4 4 8 6 5 5 4 7 4 4 4 5 4 4 3 1 2 3 3 4 8 13 16 17 16 18 23 26 32 33 33 34 36 39 39 35 38 34 29 30 30 31 33 31 29 27 27 23 20
6 7 6 5 11 6 5 3 8 6 8 8 4 5 7 3 3 4 4 5 11 24 26 25 21 26 28 25 31 43 38 34 34 36 36 37 38 37 35 32 30 30 31 25 27 27 20 20 18
4 8 6 4 4 2 3 3 4 10 6 5 4 5 8 6 5 5 1 5 17 24 19 19 17 24 25 28 29 32 33 32 31 36 39 41 37 39 37 35 31 30 29 28 27 24 25 22 20
6 6 6 10 7 6 3 7 5 9 8 7 10 8 8 7 5 1 3 4 15 16 20 18 18 24 25 28 28 34 30 32 31 37 39 42 41 39 37 33 32 30 29 30 29 26 23 21 19
7 8 7 6 8 3 5 3 3 4 9 9 10 10 8 8 6 4 5 5 10 18 20 22 22 27 28 30 31 26 30 33 31 29 39 39 39 38 36 33 30 31 29 27 26 25 22 19 18
3 4 5 6 3 5 6 6 9 4 9 10 8 8 8 6 7 7 7 8 10 14 21 23 26 27 31 30 31 29 32 32 29 27 36 36 34 36 36 32 30 27 28 26 25 22 21 20 18
4 1 5 1 4 1 5 12 3 8 12 10 10 7 8 7 8 7 7 8 10 17 19 26 27 30 33 31 31 33 35 35 31 27 33 38 37 37 34 33 31 27 26 25 24 23 21 19 17
1 6 6 4 4 3 5 7 2 6 11 11 11 9 8 8 8 8 7 9 9 11 16 25 29 30 27 31 32 30 33 34 30 29 28 28 33 34 33 32 31 28 25 24 23 22 21 20 18
8 5 5 7 4 2 4 15 15 8 12 13 13 11 10 10 11 12 11 10 10 10 13 18 26 32 27 30 28 26 28 28 32 34 35 31 28 33 33 31 30 27 25 24 22 22 21 19 18
7 4 4 3 4 3 6 11 15 7 9 11 13 13 13 13 10 12 12 12 12 11 11 14 16 32 30 31 28 26 29 28 28 34 32 36 29 34 33 31 28 27 27 26 23 21 21 18 17
6 5 7 9 6 7 9 13 14 6 6 8 14 14 14 12 11 13 16 15 15 14 14 13 17 25 32 31 30 27 33 29 24 27 33 38 35 37 35 30 29 27 27 25 23 24 19 12 20
13 11 7 9 6 3 4 6 6 3 4 5 9 12 13 16 15 15 17 19 18 18 17 16 18 28 33 31 29 24 31 26 26 30 28 27 36 36 33 30 29 24 26 25 25 26 23 14 20
14 10 7 5 3 5 3 7 7 9 9 8 9 12 13 16 16 16 18 21 22 20 18 17 16 23 24 34 33 36 36 30 30 32 33 30 31 30 31 28 17 22 26 26 24 23 29 23 16
10 8 10 7 6 4 3 5 3 4 9 11 8 11 15 18 19 19 19 25 23 22 22 21 19 24 28 31 30 31 31 31 23 31 31 31 31 33 33 26 29 28 22 24 20 22 27 27 20
7 3 3 3 2 6 7 7 4 5 10 6 7 6 9 15 17 16 22 23 22 22 21 23 25 24 28 29 30 31 30 31 24 33 35 34 30 33 34 34 31 34 31 26 23 23 22 24 25
5 6 3 5 4 7 1 7 11 9 12 11 12 11 5 13 16 17 19 21 23 24 25 25 26 27 28 29 28 32 35 34 35 31 36 39 35 36 37 35 38 43 35 29 26 23 22 22 24
13 12 5 7 6 5 4 5 6 8 10 9 11 11 6 10 14 19 20 23 27 28 29 27 28 28 29 30 31 33 32 36 37 38 35 37 37 37 36 40 39 39 37 34 32 32 29 24 25
6 8 6 2 2 1 2 4 10 10 7 10 8 8 11 9 14 18 18 25 27 29 32 33 32 31 33 34 34 33 35 34 34 33 33 34 35 35 38 41 40 38 40 37 32 30 32 28 26
8 10 5 1 6 8 2 3 6 6 8 6 5 7 7 5 10 14 16 23 26 28 31 31 32 34 34 34 36 37 36 34 33 32 34 35 35 35 35 41 41 39 38 39 35 29 29 31 32
6 8 1 3 3 4 4 4 7 12 10 7 6 5 4 6 9 13 14 21 24 24 27 30 32 33 32 33 33 34 37 38 36 36 35 36 34 33 34 33 32 33 35 35 31 32 31 32 35
2 5 9 4 4 1 1 8 4 9 10 6 9 7 6 3 5 9 12 18 23 27 28 32 32 32 35 35 34 34 33 35 36 39 41 39 39 34 35 34 37 41 39 38 37 32 33 32 33

GFSSGP_925_spd_060.txt.gz
Wind_Speed
7 6 4 6 6 6 3 4 2 4 2 2 1 5 9 10 6 9 4 6 1 13 20 23 18 27 31 35 38 40 38 38 36 34 34 35 39 37 34 33 31 30 27 25 24 25 24 24 26
9 6 6 2 7 8 5 2 5 1 2 1 5 8 9 9 3 4 1 4 3 14 22 23 22 26 30 35 39 41 40 40 38 37 38 37 37 39 34 33 33 31 28 26 25 25 25 24 27
8 6 5 4 6 7 3 4 2 1 2 5 3 4 6 2 1 2 2 4 10 14 24 23 24 25 26 33 39 40 40 38 37 37 37 36 36 38 36 35 34 31 29 26 25 25 25 25 27
8 6 4 8 8 2 6 2 2 5 3 6 6 8 2 1 1 1 4 4 9 16 22 25 27 25 28 33 37 39 39 39 39 38 37 36 36 37 38 35 35 32 29 27 25 24 26 27 28
8 4 7 10 8 4 6 5 6 6 2 3 4 6 4 3 3 1 4 4 10 15 18 22 26 29 27 32 35 38 39 41 40 38 37 37 37 39 39 37 36 31 29 27 26 26 29 29 27
6 4 7 11 8 5 4 4 5 7 5 3 6 9 3 1 2 3 6 7 8 10 20 20 25 30 29 32 35 39 39 40 39 38 38 38 38 40 41 37 33 31 27 28 28 28 29 27 26
14 7 10 6 6 6 3 3 6 7 8 7 2 7 1 4 1 4 6 8 8 8 11 18 14 18 21 26 34 34 40 38 37 38 39 38 39 39 40 36 32 31 30 30 31 30 29 28 28
9 6 7 10 9 8 5 3 5 8 8 4 3 5 5 2 2 4 3 3 6 6 10 18 24 24 19 17 27 29 33 39 39 38 39 40 40 38 37 36 33 33 33 32 31 30 29 27 27
7 8 10 12 11 8 4 8 5 3 9 8 7 8 3 1 2 3 3 2 3 6 12 13 20 20 27 29 20 23 31 36 39 39 40 40 32 31 34 31 35 34 33 32 31 30 29 27 26
12 12 12 6 10 6 6 7 10 6 10 11 9 8 6 5 4 5 6 4 3 6 18 20 20 22 23 28 31 23 26 32 38 39 37 34 30 30 27 30 33 34 33 31 30 30 28 24 20
14 17 9 7 10 8 9 10 4 8 13 9 9 7 8 7 6 5 7 5 6 9 17 14 16 19 20 29 22 23 22 29 31 33 36 31 29 28 26 29 29 31 31 26 25 27 20 19 18
14 18 11 11 7 8 10 8 8 12 13 4 2 5 9 8 6 5 6 4 5 9 15 15 14 16 22 28 34 33 28 37 38 39 35 31 29 28 27 29 28 30 27 25 23 21 17 17 16
19 16 11 13 11 11 10 13 13 14 10 5 4 6 9 7 6 4 5 3 5 12 10 12 11 14 21 25 31 37 31 37 38 38 31 29 29 28 28 29 28 28 25 25 23 18 17 16 16
7 19 15 13 13 11 12 16 4 8 4 9 9 9 8 8 7 5 6 5 7 13 14 13 13 15 16 15 22 29 25 41 38 36 29 30 29 30 26 28 26 24 23 22 21 21 19 17 16
11 12 14 15 14 15 10 16 14 14 6 10 12 10 9 9 8 8 6 7 8 12 13 14 15 16 16 17 21 26 26 32 36 33 28 28 28 28 25 25 23 23 22 21 20 20 17 16 15
14 14 16 15 12 8 11 18 6 4 9 10 12 11 11 11 10 9 9 10 10 9 16 15 16 21 20 20 25 26 29 31 34 31 27 28 31 32 23 23 21 21 20 20 19 18 17 16 16
12 15 18 12 11 6 13 11 3 4 8 10 11 12 11 10 10 11 11 13 12 11 12 18 19 22 25 24 23 27 32 35 26 24 23 23 25 26 19 19 20 21 19 19 18 17 17 15 14
15 16 14 14 9 12 13 16 11 8 10 10 10 12 13 12 12 13 13 14 14 13 14 16 23 22 25 26 26 25 29 33 34 23 22 24 25 17 18 19 20 20 19 19 17 16 14 15 15
13 12 14 10 6 6 13 16 14 6 8 10 11 13 14 14 11 14 14 15 15 14 13 17 23 26 28 25 27 25 25 32 34 30 20 24 24 27 23 21 21 21 20 19 18 15 15 13 13
18 15 14 9 6 8 13 16 14 12 7 8 11 13 15 14 13 13 16 16 17 17 16 14 18 27 27 28 31 29 26 25 35 32 27 23 25 25 23 21 22 21 19 18 18 16 14 14 16
20 20 15 14 3 10 9 15 18 14 7 7 9 11 13 16 17 16 16 19 17 17 16 17 18 28 33 30 28 26 22 22 24 32 33 28 23 22 24 26 22 22 19 19 17 17 17 13 15
19 19 16 12 11 9 3 13 15 9 16 12 11 12 13 17 17 16 17 19 19 18 17 17 18 21 28 30 31 32 35 30 29 31 29 28 25 25 26 26 23 21 20 18 17 16 16 17 16
17 7 13 15 13 12 14 9 14 6 13 13 12 12 14 15 18 18 18 20 20 19 19 18 18 20 24 31 30 34 32 32 28 28 30 30 26 23 28 28 23 22 21 17 15 12 17 18 21
8 7 7 8 10 12 15 12 8 11 10 4 5 7 9 14 17 18 20 20 20 20 20 20 22 22 24 32 32 32 31 30 27 26 26 28 26 30 35 36 31 26 26 22 21 16 19 20 21
15 12 7 8 8 10 4 10 14 11 12 11 10 11 7 11 16 18 20 18 23 24 24 22 23 24 25 30 32 36 35 34 35 32 33 29 29 28 30 33 35 38 31 26 26 35 32 25 23
18 19 7 8 10 9 9 8 7 4 5 6 6 7 5 10 14 19 21 22 25 26 27 26 27 27 28 30 31 31 34 33 36 37 32 32 33 33 37 41 32 34 39 37 31 30 27 24 23
13 19 16 9 1 5 7 7 11 10 10 11 9 8 12 11 14 19 21 25 26 28 29 29 29 29 30 32 31 31 33 33 36 38 35 35 33 33 37 39 34 31 30 35 31 32 32 29 26
10 10 8 10 13 12 9 8 7 4 10 3 4 5 4 6 12 15 19 24 28 28 30 30 29 30 30 32 33 35 36 35 35 36 40 39 38 36 32 34 36 36 32 32 32 33 34 33 32
14 12 9 7 13 11 10 6 5 9 5 3 3 8 5 2 10 13 15 22 25 26 28 30 32 32 32 33 34 34 35 35 35 36 39 39 39 38 39 37 37 37 38 37 36 36 35 35 35
17 16 19 10 10 7 8 9 9 6 10 6 11 11 8 2 4 10 13 18 23 27 29 31 31 33 34 33 34 35 34 34 36 37 38 37 39 42 42 41 41 41 40 39 38 38 38 36 35

GFSSGP_925_spd_066.txt.gz
Wind_Speed
13 10 10 15 6 8 17 17 7 5 2 6 7 4 10 10 8 4 9 4 4 7 8 14 17 21 21 22 22 24 26 27 27 28 26 26 28 28 29 30 31 31 30 28 26 26 25 25 28
11 12 14 6 8 11 14 7 4 2 10 9 2 7 9 4 12 5 10 7 4 3 7 11 16 19 21 24 24 24 25 27 28 30 28 28 29 29 30 30 31 30 29 28 26 25 25 29 30
14 13 6 5 12 13 16 6 3 5 6 3 3 5 6 3 12 5 7 4 1 3 8 14 14 18 21 26 27 27 27 29 30 31 30 30 32 31 29 28 29 30 27 27 27 25 28 30 30
9 10 6 7 18 22 24 6 5 3 5 8 5 8 5 8 4 7 4 3 1 2 6 14 16 18 21 24 28 29 30 32 32 34 34 34 31 32 30 28 27 29 28 27 27 25 31 30 28
18 7 11 15 20 23 16 2 5 6 5 2 7 5 6 8 9 7 3 1 1 3 5 9 16 18 22 23 25 24 28 35 35 34 36 36 36 36 31 29 27 28 29 28 27 27 29 29 28
9 9 13 14 21 23 8 4 2 7 6 9 11 6 3 13 8 10 5 3 2 4 6 8 14 17 19 18 18 18 34 34 36 38 35 36 37 35 35 32 29 28 28 27 27 30 26 28 28
17 13 18 20 19 22 8 10 3 7 11 6 5 1 1 11 7 7 4 3 3 3 6 9 12 18 19 21 21 11 6 15 36 41 39 37 35 34 33 32 30 28 26 26 28 30 29 31 29
13 13 22 19 16 20 6 9 4 8 8 3 3 4 4 9 8 5 6 6 2 6 9 10 11 19 17 22 19 16 17 17 25 43 41 38 36 34 33 33 30 28 26 27 29 31 29 29 25
20 15 16 21 21 20 12 8 9 12 7 9 7 9 10 11 6 7 9 8 8 7 8 6 10 14 14 17 14 12 23 35 27 42 42 38 37 36 32 31 31 28 29 29 28 28 31 26 25
19 16 24 21 21 13 11 9 9 10 13 14 14 10 16 10 10 8 8 11 10 8 9 10 9 11 12 14 10 11 14 22 35 38 41 37 36 34 33 30 31 30 29 27 26 26 28 26 27
23 22 22 22 21 9 13 13 10 11 10 10 2 5 8 11 7 6 5 8 9 9 7 9 10 11 7 6 7 12 14 17 27 35 42 34 34 33 32 34 32 31 28 27 25 28 26 25 22
25 27 24 25 23 15 10 17 13 13 10 9 11 5 4 6 5 7 7 3 8 6 6 7 9 11 9 7 7 13 16 22 33 35 38 37 34 32 32 30 32 32 28 28 29 29 21 20 17
26 25 24 24 22 18 16 15 15 16 11 14 9 8 5 5 9 7 3 3 3 5 8 9 10 9 9 9 9 15 18 14 34 34 26 36 30 31 31 29 31 28 25 24 31 26 22 20 16
24 24 24 23 23 17 17 18 15 17 15 17 7 8 8 8 9 7 9 6 8 11 9 11 9 8 9 8 11 17 19 22 29 32 26 30 30 30 31 29 30 28 27 24 25 19 23 21 15
24 25 22 23 19 22 17 20 20 19 16 16 13 9 10 9 8 6 7 8 11 12 13 13 12 9 9 13 14 16 20 19 31 34 28 30 29 27 31 30 28 26 27 23 23 22 22 18 18
21 19 20 21 21 20 19 20 19 20 18 18 9 12 12 13 10 10 7 9 13 15 15 13 12 10 10 11 15 16 19 27 36 37 32 32 27 26 27 33 30 27 28 26 22 24 21 19 20
14 16 21 23 22 21 21 21 19 18 6 11 12 12 12 11 13 13 12 12 15 15 18 17 13 11 11 9 10 14 23 33 38 40 40 34 28 26 24 27 28 31 30 30 24 23 22 21 21
15 19 20 20 20 22 19 18 13 17 12 10 11 12 12 13 13 16 16 14 17 16 19 18 16 15 17 16 14 14 16 27 36 38 39 35 31 29 24 17 27 23 24 19 22 23 21 20 18
15 18 24 23 20 16 17 16 16 16 15 15 15 11 9 12 11 19 19 19 17 21 17 20 19 19 22 20 21 21 20 26 32 33 42 33 23 30 20 18 21 20 20 15 20 17 18 17 19
20 19 23 25 16 1 9 13 15 16 12 12 14 14 12 11 14 14 19 18 17 23 21 20 22 23 24 21 18 19 25 25 35 30 35 28 28 28 23 20 21 18 18 18 20 17 16 10 14
19 20 20 23 20 14 10 15 17 19 16 13 14 9 10 14 15 17 15 19 21 22 24 21 22 25 26 23 23 23 21 24 25 31 31 30 31 32 30 19 25 25 21 23 23 20 18 17 19
19 19 23 23 19 12 14 12 15 17 19 17 14 11 11 10 14 19 17 18 22 20 27 24 25 29 28 30 25 30 24 26 30 29 28 31 32 35 35 31 29 32 26 23 24 26 25 23 22
17 12 19 22 17 16 19 11 12 14 15 17 19 14 16 15 11 18 19 21 23 22 26 27 28 29 28 30 25 28 27 26 27 27 25 31 33 36 37 36 31 30 32 24 28 26 28 25 23
18 6 24 21 14 14 18 16 12 14 14 14 9 8 8 16 12 14 21 25 23 25 24 23 30 30 28 32 30 30 29 31 30 29 25 26 31 37 31 32 33 31 31 29 25 28 28 28 28
18 13 8 7 12 11 16 14 12 14 9 3 4 5 5 11 11 11 18 16 22 26 27 26 28 28 31 31 33 33 31 30 30 36 30 29 28 31 34 30 28 33 34 28 26 30 27 35 30
13 16 8 6 4 14 19 9 15 17 16 3 3 3 4 10 9 10 15 15 21 26 27 26 27 25 30 33 31 34 32 30 30 33 35 32 33 33 36 34 35 36 31 36 36 33 32 30 28
18 20 25 17 12 8 9 18 11 5 5 6 8 7 7 8 12 10 11 15 21 26 28 28 26 28 29 30 32 32 35 34 31 31 33 36 35 32 34 35 39 41 35 36 41 40 40 35 35
17 13 12 6 4 6 4 8 2 9 9 7 5 4 4 5 4 14 13 16 23 25 27 28 28 27 32 31 31 32 33 33 34 34 35 35 36 38 36 34 33 36 40 40 39 37 41 41 39
14 15 12 12 11 4 1 5 4 5 7 9 10 6 4 5 4 8 11 17 23 23 25 28 26 27 28 32 31 32 32 34 33 34 36 37 38 38 40 40 36 37 39 38 40 40 38 39 37
14 17 15 6 13 12 9 1 5 5 11 12 7 14 11 7 8 4 6 10 18 18 21 25 25 24 27 30 32 33 33 34 35 35 36 38 38 39 41 41 40 41 40 40 41 39 38 39 38

GFSSGP_925_spd_069.txt.gz
Wind_Speed
12 9 7 2 3 3 4 8 5 3 5 3 6 8 6 3 1 3 6 8 6 11 13 17 19 22 22 23 22 21 21 21 21 22 24 24 24 26 26 30 31 31 30 29 27 28 28 30 34
10 7 4 2 3 2 5 10 15 9 8 8 6 5 0 2 7 9 7 10 10 7 11 14 18 20 23 24 25 25 24 23 23 23 25 27 26 28 28 28 30 31 30 29 28 29 30 34 33
10 10 2 4 4 6 6 1 3 7 10 6 3 4 4 7 6 7 14 10 8 8 10 12 18 22 23 24 26 26 26 27 25 25 27 30 30 31 32 30 29 31 30 28 28 29 35 35 34
4 3 3 0 10 14 13 16 5 6 4 8 5 3 5 7 5 15 14 12 6 8 11 13 14 20 21 24 25 26 27 28 28 27 28 31 33 33 34 33 29 28 28 27 27 30 34 33 34
3 2 3 4 11 17 17 10 6 5 6 8 8 6 7 4 19 17 15 13 10 10 9 12 15 17 19 23 26 28 30 30 32 31 32 30 34 34 32 30 28 28 28 27 29 35 35 33 30
2 2 1 7 14 21 17 15 7 5 3 2 3 6 4 20 19 17 11 11 9 9 10 9 14 16 16 23 25 28 26 26 28 30 33 29 36 33 31 30 29 28 29 29 34 34 34 32 26
5 3 6 8 16 21 16 5 8 6 4 2 6 6 5 7 20 15 13 11 11 10 9 8 9 17 17 20 24 24 20 24 14 25 34 37 37 34 32 32 32 30 27 28 35 33 33 30 24
4 3 9 11 13 20 12 3 8 8 5 8 6 4 5 7 19 15 15 13 10 9 8 5 10 13 14 14 15 18 18 31 15 18 21 35 39 38 35 33 31 30 27 32 33 32 30 30 26
5 9 12 16 16 22 11 3 2 4 7 4 7 8 12 27 19 15 17 14 10 8 8 7 9 11 12 17 17 16 14 20 19 36 32 30 38 39 37 33 31 27 28 32 31 31 31 30 25
10 8 16 15 20 20 14 8 8 5 7 5 4 10 21 23 20 14 12 13 14 11 10 9 10 11 13 14 18 16 13 24 28 33 32 38 38 39 37 35 30 27 30 33 31 33 31 28 28
9 18 14 16 24 17 16 11 3 5 5 5 4 14 14 11 14 11 8 15 20 14 12 11 10 10 12 13 13 11 12 20 27 37 21 37 38 37 37 35 33 30 30 31 31 32 30 30 28
12 18 18 19 25 20 18 8 7 3 6 7 8 14 13 9 9 8 8 21 21 15 10 10 11 13 13 12 12 10 16 17 25 28 28 36 36 37 36 36 36 35 32 32 33 31 32 30 24
18 19 20 20 22 22 19 12 8 6 7 4 3 9 10 10 9 10 21 21 21 17 13 10 13 14 11 9 9 12 15 17 25 32 37 41 38 36 38 37 37 35 35 34 34 31 33 27 16
14 16 18 19 19 17 17 10 4 9 7 8 6 10 9 10 8 10 16 18 17 17 16 13 14 12 10 9 9 13 18 14 20 34 40 42 41 39 38 39 36 34 36 35 35 33 31 21 14
16 17 16 18 15 16 12 11 8 9 9 11 9 13 10 10 12 10 18 21 22 16 17 15 17 14 11 11 11 16 13 20 25 33 37 43 41 39 40 41 38 34 33 37 33 26 25 19 19
7 9 12 10 12 15 9 16 13 12 12 13 12 10 10 11 12 13 20 23 21 20 18 21 18 16 14 14 13 15 18 22 34 30 33 35 39 38 37 39 38 33 32 36 31 22 30 22 21
5 5 9 12 12 14 10 16 16 12 14 11 13 10 11 12 9 18 26 25 22 22 21 18 16 16 17 17 16 18 19 26 35 37 41 37 36 36 38 40 37 31 33 31 28 23 31 27 24
6 5 8 11 17 13 20 20 17 14 9 8 10 10 10 16 15 20 29 26 24 24 21 20 18 19 19 16 17 19 22 28 36 37 41 36 34 33 38 38 39 32 35 32 27 33 30 29 28
16 15 13 11 12 13 20 23 14 16 8 9 10 10 9 16 15 24 29 31 28 27 26 25 22 22 22 19 19 18 21 25 31 37 36 35 32 28 38 39 39 29 35 30 31 33 30 28 30
18 18 17 16 16 12 19 17 10 7 7 9 13 11 11 12 17 17 24 29 31 31 27 25 24 25 24 23 22 17 17 22 29 34 39 41 35 27 35 36 33 23 33 23 28 32 25 27 31
18 15 16 15 19 21 18 15 4 6 7 7 10 15 14 17 20 17 17 24 30 31 31 29 26 25 24 23 22 21 19 21 22 30 37 38 38 29 31 31 41 24 30 28 24 25 25 21 20
13 17 13 15 12 11 17 10 7 9 16 15 11 10 15 12 20 19 18 19 27 30 32 28 26 29 28 25 23 27 21 21 20 29 34 33 32 33 32 33 35 34 29 31 30 25 24 23 19
9 16 9 9 10 12 19 5 6 9 8 16 15 10 13 15 23 22 20 25 27 33 33 30 29 28 29 30 29 28 21 23 25 25 31 29 29 31 29 29 27 27 27 26 27 25 24 22 24
14 13 10 8 3 5 12 7 6 8 11 7 7 15 16 11 22 21 22 28 25 33 33 32 30 28 30 31 29 29 26 25 24 24 27 29 27 32 34 32 29 27 30 30 30 28 27 29 30
10 3 2 2 4 3 8 12 13 11 13 12 4 10 10 11 21 19 19 17 24 29 31 31 31 26 31 32 29 32 30 32 31 31 28 27 28 34 35 35 36 32 31 35 29 31 32 31 27
12 10 3 6 3 2 8 6 9 15 19 11 6 7 8 13 19 20 21 19 26 29 32 30 31 27 30 32 31 29 28 31 30 34 32 31 30 30 32 36 37 36 33 31 34 29 31 30 30
5 7 16 6 6 1 5 7 22 15 16 7 8 8 8 7 13 20 20 19 27 30 32 31 31 29 32 32 31 31 31 28 30 32 34 35 31 30 32 36 36 36 37 37 33 30 32 31 32
7 3 4 4 3 4 5 11 2 10 7 5 6 6 7 5 5 15 18 17 29 32 32 33 34 30 31 32 30 30 31 31 30 28 34 34 35 35 33 35 36 35 36 38 37 36 37 37 38
7 5 5 3 7 2 2 4 3 10 15 13 14 15 10 12 11 8 17 20 27 29 30 31 31 30 28 31 30 29 29 33 30 30 31 34 35 37 38 39 38 36 39 41 40 39 35 35 38
4 11 12 2 1 4 2 5 6 6 11 13 10 11 16 18 21 11 15 14 23 26 27 30 29 29 33 32 32 30 29 30 33 33 31 34 35 38 39 38 39 41 39 40 40 40 37 38 38

GFSSGP_925_spd_072.txt.gz
Wind_Speed
7 6 1 3 3 4 4 7 5 8 2 3 4 7 8 2 2 4 11 11 12 14 15 18 22 22 23 24 26 25 22 21 21 24 26 28 30 31 31 30 30 31 29 27 27 26 27 30 32
6 4 3 2 3 1 5 5 7 9 5 6 6 6 4 2 4 6 11 13 14 16 17 19 21 23 23 24 25 25 24 22 22 24 26 28 29 30 32 32 31 31 30 27 27 27 28 33 34
5 4 3 4 4 6 5 4 9 8 8 7 5 3 6 9 2 15 11 18 17 16 20 20 21 24 24 24 24 25 24 23 24 25 27 28 28 31 32 32 31 30 30 29 28 28 32 36 35
5 4 3 3 10 9 7 4 9 4 6 1 6 6 3 8 18 15 22 19 18 16 18 18 19 23 25 24 24 25 27 27 28 30 30 29 30 31 30 31 33 31 29 28 29 32 37 36 34
2 3 1 3 9 12 7 7 9 11 7 6 6 6 7 2 15 24 20 17 17 18 14 19 20 20 24 26 27 28 29 29 30 32 32 30 31 32 33 32 32 31 29 29 32 35 36 36 36
2 3 2 7 9 14 7 10 12 18 7 5 4 6 6 18 27 25 21 16 14 14 13 17 19 19 21 24 26 29 32 34 32 31 32 33 31 32 33 32 29 30 31 29 36 36 36 36 27
6 4 5 5 5 11 13 6 18 12 9 6 8 6 2 7 24 23 19 18 14 12 12 14 17 20 22 23 23 26 29 29 22 17 19 21 24 24 31 32 31 32 30 34 35 35 34 29 23
4 4 4 4 5 12 7 8 10 5 5 4 6 6 5 7 25 21 20 17 14 14 13 12 15 19 20 18 23 26 25 27 18 15 24 20 24 26 30 31 32 31 29 39 35 33 30 25 29
4 2 5 6 12 15 9 7 12 7 6 3 6 8 7 28 25 24 19 16 15 13 13 13 14 16 17 16 16 18 19 30 33 35 25 35 23 31 32 34 33 31 32 38 35 33 29 22 28
5 7 10 9 8 15 12 6 12 9 5 5 3 5 23 31 26 20 15 14 17 15 14 12 13 15 17 19 19 19 18 31 37 30 31 29 22 34 35 34 33 30 35 37 34 32 28 30 37
6 13 6 9 14 14 9 11 12 12 9 9 7 10 15 15 16 15 16 22 24 18 14 13 13 13 18 18 20 21 23 27 32 32 31 22 32 34 37 36 32 32 37 36 33 31 28 37 31
7 7 11 13 12 12 17 18 11 8 11 8 8 18 14 13 13 12 14 19 22 19 16 15 14 13 14 16 19 19 21 24 29 31 37 32 29 35 38 36 35 34 39 36 35 33 30 32 23
11 14 16 15 14 17 17 20 20 19 14 10 10 11 15 12 10 15 20 23 27 22 16 15 16 16 15 14 14 15 18 21 29 32 38 35 42 42 38 36 36 38 39 38 39 35 32 28 23
5 12 18 16 17 17 16 18 6 18 11 10 12 14 12 12 10 11 19 23 27 22 19 17 17 17 16 12 13 14 16 22 23 33 42 29 42 42 36 36 39 41 41 40 40 36 33 26 17
5 12 14 16 8 9 7 17 11 18 9 10 9 13 11 13 16 18 26 28 30 25 22 21 20 17 13 11 10 11 17 15 20 30 33 26 41 44 43 42 40 41 40 40 37 33 29 23 16
4 4 8 7 10 11 8 19 13 11 9 12 12 9 11 12 16 24 30 32 30 28 26 22 21 18 16 13 12 12 13 17 17 26 38 36 42 45 42 43 40 40 39 40 38 35 31 23 19
4 7 7 5 6 7 8 13 9 10 8 11 10 9 11 9 7 18 30 35 34 30 30 25 24 21 18 16 13 15 12 17 20 30 35 35 38 42 42 43 41 39 39 40 36 33 29 24 22
5 4 4 4 4 4 9 11 11 13 9 17 13 9 14 15 18 20 28 32 32 32 32 28 22 19 18 19 18 16 16 20 26 33 35 38 37 38 40 40 41 40 41 39 34 31 28 27 25
5 8 9 11 12 5 8 14 18 17 18 15 10 9 16 18 14 20 25 30 32 33 32 30 25 23 21 20 21 18 17 21 27 29 33 37 37 35 39 37 40 42 42 42 37 28 32 32 28
4 9 13 13 15 7 8 15 17 19 12 14 14 11 14 11 11 14 22 26 31 34 35 32 29 26 23 20 20 18 21 21 28 29 35 34 37 34 34 37 38 39 39 41 37 29 28 26 34
5 7 9 16 19 11 8 10 8 14 7 6 8 10 10 19 18 16 17 24 26 29 33 32 33 31 27 23 20 19 18 18 22 25 27 30 34 34 34 34 36 38 39 39 34 31 32 24 34
14 6 8 16 9 6 5 5 7 10 11 8 8 9 11 17 19 19 18 19 27 29 32 34 33 31 28 27 24 23 18 15 18 20 27 28 30 28 28 34 37 32 33 31 34 33 32 31 27
8 8 13 13 3 3 4 4 6 7 13 11 9 9 10 19 21 21 22 26 27 30 31 35 32 30 29 28 27 23 19 18 19 24 25 30 35 30 26 31 36 36 33 33 29 22 22 31 34
8 4 10 6 3 4 6 4 6 5 6 8 6 9 12 18 20 22 18 24 24 28 27 33 33 33 32 30 28 27 24 22 21 24 26 26 33 33 25 25 32 28 27 29 32 24 24 27 34
7 0 2 5 4 5 7 7 13 8 13 11 11 16 11 21 18 17 18 16 24 28 28 26 31 26 32 32 30 28 26 26 25 25 27 27 28 34 34 33 31 39 32 28 37 38 36 33 29
10 6 2 4 3 1 5 5 5 6 13 14 11 11 8 19 18 20 20 19 26 29 30 28 28 25 28 30 29 29 28 26 29 32 27 30 31 35 35 38 36 36 35 35 36 39 40 32 30
4 7 5 2 0 1 4 5 6 10 15 18 13 6 11 17 18 20 18 18 25 28 32 32 29 27 27 30 28 29 29 30 30 31 31 30 28 30 32 39 41 39 37 35 32 32 32 33 33
6 1 3 3 2 4 4 2 3 10 17 8 13 9 10 6 11 16 18 17 23 26 27 28 31 31 29 31 28 27 26 27 29 32 35 33 33 31 31 34 38 41 40 38 36 34 37 36 37
4 3 3 2 3 1 2 2 10 14 12 10 12 13 12 8 4 9 11 15 19 24 26 27 26 27 27 26 28 28 29 27 25 30 34 36 36 37 35 36 38 38 40 42 41 39 38 38 38
10 7 5 3 5 5 1 3 10 14 17 15 12 14 18 19 13 10 9 9 6 11 21 27 26 26 30 29 28 30 31 30 30 27 29 34 34 36 39 37 37 38 38 36 36 36 34 37 38

GFSSGP_925_spd_075.txt.gz
Wind_Speed
5 3 2 4 3 4 4 7 4 7 6 3 3 4 7 3 4 4 6 15 14 18 19 21 23 25 24 23 23 24 24 27 28 31 34 36 37 37 36 34 31 28 27 26 26 26 27 27 32
8 8 4 2 4 1 5 5 6 6 6 2 3 4 2 2 2 6 10 17 18 19 20 21 22 25 26 25 24 23 23 24 27 30 33 35 34 35 34 32 30 28 28 27 27 27 26 29 31
10 4 4 4 4 6 6 6 4 8 3 2 3 2 6 4 4 11 8 22 21 19 19 19 21 24 25 26 25 24 23 24 26 30 32 33 33 32 32 31 30 28 30 27 27 27 27 32 33
6 4 4 4 8 7 7 5 2 10 9 3 3 2 2 5 9 17 19 24 22 21 20 19 20 22 25 25 25 25 24 24 26 29 31 33 32 33 32 31 30 30 28 27 29 30 33 34 36
4 3 2 3 7 7 4 6 7 11 4 9 2 5 3 6 6 19 27 25 22 20 20 19 19 21 24 25 26 26 25 25 27 30 31 32 33 34 33 33 32 30 31 29 31 33 35 36 34
3 3 2 5 6 6 7 6 3 7 13 15 4 5 4 5 13 24 22 22 18 16 19 20 21 22 23 24 25 25 26 27 28 31 31 28 32 30 33 33 33 31 29 30 32 35 36 34 32
6 4 6 6 4 7 6 5 5 7 12 10 6 7 3 3 17 20 20 20 18 15 17 20 21 21 22 24 25 24 24 24 20 23 23 18 21 20 28 30 29 31 32 33 32 35 34 33 31
5 4 4 6 6 11 7 3 2 2 9 4 8 6 5 7 20 19 17 17 17 16 15 17 20 22 22 24 23 23 23 22 26 18 17 21 15 19 18 24 28 30 33 36 35 36 34 30 29
4 1 5 8 10 8 1 4 3 3 3 6 5 9 5 25 25 21 18 15 16 16 16 16 18 19 20 19 21 22 25 31 30 29 25 26 25 27 23 26 28 30 32 36 37 34 28 27 30
5 5 10 6 11 7 1 3 9 6 10 10 4 6 10 30 27 20 15 15 19 18 17 16 16 17 17 17 17 18 21 31 29 31 35 34 32 28 26 24 29 28 34 36 36 31 27 31 34
6 12 4 6 8 6 5 8 3 6 13 10 9 5 7 12 17 16 16 22 27 22 18 16 15 15 17 17 19 20 20 27 31 33 38 39 38 36 32 26 28 30 37 37 35 29 33 34 33
8 7 13 5 5 3 7 6 7 6 16 13 11 7 12 14 15 14 16 21 21 22 20 16 15 15 16 17 20 23 25 31 32 34 37 40 34 35 32 31 35 35 41 37 36 32 33 37 34
10 8 9 7 8 8 8 12 13 13 18 15 8 10 16 15 14 14 18 24 24 24 21 19 16 15 16 18 20 23 24 27 32 33 35 42 41 30 31 34 38 37 42 39 36 31 35 36 33
7 9 14 10 13 7 11 15 4 16 17 11 9 14 16 15 15 8 18 21 26 26 23 20 18 16 17 19 18 20 22 26 30 36 37 41 32 36 37 36 39 37 43 41 38 36 35 32 30
7 12 9 8 5 7 6 15 10 16 14 13 9 13 14 16 12 16 24 25 33 30 24 21 22 19 19 18 18 19 20 21 24 30 35 37 42 35 37 35 37 40 45 42 41 36 34 28 26
5 5 7 3 8 8 10 25 12 11 11 11 11 10 14 11 16 22 28 28 32 29 25 23 23 24 20 17 16 15 18 19 21 26 29 38 35 36 39 37 41 41 43 40 42 37 33 26 27
3 11 9 6 8 6 9 13 8 7 7 9 10 9 12 12 9 15 26 31 33 29 28 26 25 24 19 14 11 10 9 16 18 24 26 35 28 45 40 38 41 41 43 41 42 36 34 28 29
5 6 4 5 3 3 6 9 9 8 6 11 9 7 12 13 19 20 27 30 33 31 29 27 26 23 20 15 11 9 9 12 14 20 33 25 36 41 37 36 40 42 41 39 40 36 29 27 28
6 5 5 5 8 6 8 13 13 9 8 10 12 13 10 16 16 16 24 29 31 30 31 30 29 25 21 19 16 11 10 10 14 21 27 32 38 33 33 34 37 40 41 40 39 35 29 25 27
8 9 9 6 7 10 8 12 14 14 8 12 14 17 14 8 10 14 21 26 30 29 31 33 30 26 23 20 18 12 14 11 14 19 27 27 31 29 29 31 36 35 35 40 37 36 26 23 28
9 7 4 7 9 16 4 13 15 13 7 7 12 14 8 16 15 15 16 25 27 28 31 34 31 27 24 20 20 15 15 9 13 16 22 28 33 38 36 31 35 34 34 39 40 34 30 20 29
10 6 9 5 6 9 2 7 8 8 8 5 9 8 8 14 14 16 17 18 29 29 31 31 30 29 26 24 22 22 15 11 13 21 23 26 32 32 37 33 34 36 33 37 40 35 31 30 24
5 4 4 6 8 7 8 6 7 5 9 10 8 7 8 12 17 17 20 26 27 27 28 26 24 24 26 27 23 25 19 15 14 17 21 23 25 36 36 37 32 30 34 34 39 35 29 34 28
1 3 4 6 7 7 10 8 4 5 9 5 5 4 10 12 15 18 14 21 24 25 25 25 25 24 28 29 26 25 23 20 17 20 20 24 22 26 32 28 31 34 29 29 34 34 32 28 27
8 2 2 4 6 6 6 9 11 8 8 12 13 13 7 11 13 13 17 17 25 28 26 26 26 23 26 30 28 27 25 22 21 19 19 21 22 22 26 29 30 34 40 34 34 26 25 23 19
11 5 3 4 3 3 5 5 5 10 13 5 11 12 10 10 15 19 20 19 25 28 28 27 27 24 24 26 25 26 25 23 23 22 20 22 22 23 32 31 31 32 39 41 33 33 34 31 25
3 8 0 3 3 1 4 5 5 11 13 14 16 13 8 7 15 18 16 15 25 28 29 27 26 24 25 24 23 25 26 25 23 22 23 22 22 25 27 31 30 30 35 35 29 29 32 33 33
4 1 2 3 3 2 4 5 3 11 14 15 16 18 16 4 7 9 12 15 22 24 24 23 23 26 23 21 20 20 25 25 24 23 26 27 26 25 28 30 30 30 31 39 36 33 34 39 39
4 3 3 2 2 2 3 0 5 9 12 13 15 15 15 5 8 8 7 12 15 14 14 16 17 19 18 19 20 18 24 23 24 24 24 26 26 26 25 29 32 33 33 33 35 33 30 36 36
5 5 4 2 3 3 0 3 5 8 13 17 14 13 14 16 15 14 13 14 17 17 14 13 13 14 12 15 17 16 18 21 20 22 24 26 29 29 31 30 32 33 34 36 37 37 33 39 37

GFSSGP_925_spd_078.txt.gz
Wind_Speed
8 7 5 4 3 5 4 6 3 5 5 3 5 5 8 4 5 4 4 19 14 17 18 19 21 22 23 23 24 24 25 27 30 31 32 33 33 33 32 32 30 28 27 27 28 26 24 25 28
11 9 3 3 4 1 5 4 6 6 6 7 1 2 1 3 2 3 8 21 16 19 19 20 22 23 23 23 26 25 25 27 30 33 34 36 35 34 32 29 27 26 27 27 26 26 27 29 31
12 4 4 4 4 6 6 7 7 3 8 4 3 2 1 3 2 6 9 22 19 20 19 19 22 22 22 24 23 25 25 26 29 33 35 36 37 36 33 31 28 26 28 27 27 27 29 32 34
6 4 4 4 8 7 7 4 3 7 6 1 1 3 4 2 3 9 13 22 21 20 18 18 19 22 22 24 24 22 24 26 28 31 35 36 37 37 35 32 29 26 27 27 28 28 31 33 33
4 3 2 2 6 7 5 8 1 7 4 7 5 5 4 4 3 12 17 22 21 20 18 18 18 22 22 23 24 23 22 25 28 31 33 35 37 35 34 32 28 27 28 27 28 29 32 34 34
3 3 2 5 5 7 7 7 2 5 3 10 6 5 5 2 7 16 20 21 18 18 18 16 18 20 21 22 24 24 24 24 26 29 29 29 27 26 21 28 27 28 28 30 29 31 33 34 34
6 4 5 5 3 5 17 7 6 4 5 6 3 7 4 2 10 18 20 17 16 16 17 18 19 21 20 21 21 22 23 22 21 21 17 16 13 20 21 25 28 27 28 31 31 33 34 34 32
5 4 3 5 5 9 6 2 2 4 5 3 3 3 5 3 19 21 19 18 16 15 17 19 21 20 20 20 20 21 23 22 24 21 25 31 25 12 18 20 25 27 29 32 35 34 34 32 30
4 1 3 6 7 7 3 1 3 2 4 3 3 3 4 5 23 23 19 17 17 16 17 19 21 21 20 21 21 20 21 23 28 26 31 32 29 21 21 24 22 29 31 32 34 34 33 30 27
4 5 7 7 6 6 2 1 4 4 3 5 4 3 3 18 16 19 16 17 17 22 21 19 19 20 21 20 18 20 24 24 29 36 34 27 28 24 31 26 26 28 32 34 35 34 30 29 29
4 6 3 4 6 5 4 6 4 4 7 9 7 2 3 6 12 10 15 20 27 26 22 21 19 19 19 20 17 19 20 29 35 36 34 32 30 31 32 33 26 26 32 33 34 33 31 30 31
4 7 6 4 7 5 7 2 8 9 10 11 8 8 5 11 14 14 17 23 25 24 23 20 19 19 17 18 18 20 23 34 34 34 31 30 34 32 37 32 28 30 33 36 36 34 32 32 32
6 6 6 6 7 7 9 12 14 13 10 14 9 9 11 11 17 21 20 21 25 24 23 22 20 19 18 18 18 21 24 28 30 33 35 38 35 34 36 33 30 33 38 39 34 33 35 34 31
4 6 7 7 10 9 14 21 6 4 10 12 9 12 11 11 18 10 17 25 29 27 27 24 21 18 20 20 20 23 25 27 30 32 35 39 37 39 32 29 33 33 38 40 35 34 36 35 32
6 8 7 5 6 7 9 16 14 10 11 13 12 11 10 14 10 15 28 27 31 30 26 24 22 19 20 21 18 22 26 27 28 30 34 38 37 35 34 32 32 36 39 40 35 32 35 34 32
4 2 3 3 2 7 9 26 9 6 9 12 11 9 9 12 16 25 25 28 27 28 26 24 21 21 22 22 20 20 20 21 24 29 33 34 38 32 30 31 34 40 39 41 36 33 34 34 32
2 5 8 7 7 7 10 20 6 6 6 9 9 8 8 9 9 19 26 31 29 28 29 26 23 24 23 21 19 16 17 19 22 23 28 35 40 39 33 34 36 42 41 42 40 38 36 32 30
4 4 4 4 5 2 8 16 8 9 6 8 9 9 9 9 16 22 25 27 28 28 29 25 24 25 23 19 16 13 12 15 19 21 25 31 36 34 26 36 37 40 40 40 41 39 34 32 30
3 4 9 2 7 6 14 13 11 8 7 9 10 10 9 12 16 14 21 27 27 28 28 25 26 28 24 20 19 15 15 12 15 20 28 30 30 38 36 34 35 37 40 43 41 39 33 26 27
5 8 10 8 10 8 8 16 16 13 8 9 12 12 11 6 7 7 18 25 28 26 22 26 26 27 25 20 17 11 14 11 10 11 19 28 32 35 39 37 35 36 35 39 39 37 30 22 31
6 7 9 11 5 10 8 21 11 7 6 7 11 12 9 11 12 11 14 24 24 26 26 25 28 25 26 20 18 12 13 9 8 19 19 23 23 27 24 29 31 33 36 40 41 39 34 24 32
5 7 10 10 5 7 3 10 4 7 13 8 11 9 11 9 10 10 13 14 27 27 24 25 29 25 22 23 21 18 11 10 10 17 22 21 25 27 24 20 23 30 32 34 37 39 35 32 26
6 2 3 3 5 5 4 5 4 4 6 9 9 9 10 7 12 15 19 23 24 26 27 29 29 25 21 23 20 19 16 15 12 12 13 21 25 27 31 28 28 31 33 36 39 38 33 29 29
0 1 5 3 2 6 12 7 3 4 9 6 6 5 7 6 11 9 9 16 20 22 25 29 27 23 21 23 19 20 19 17 16 13 13 16 20 24 33 35 31 30 32 33 35 37 34 32 27
3 2 3 2 3 4 2 6 11 10 11 6 5 7 8 9 9 12 15 15 22 26 27 26 26 22 20 22 21 19 19 19 17 17 18 19 19 22 24 41 34 36 33 30 31 32 33 30 31
5 5 3 3 2 3 4 5 3 7 11 8 5 5 6 7 6 14 18 18 24 28 27 27 27 23 21 19 19 20 19 18 16 18 18 19 19 22 20 30 37 34 34 34 33 29 30 28 25
3 6 1 3 3 2 3 6 2 17 19 18 16 14 12 11 8 11 11 16 24 29 28 27 25 20 20 18 15 18 19 18 16 14 15 16 18 20 19 22 26 30 38 39 34 33 32 28 26
3 4 2 2 3 2 4 1 4 13 17 16 16 16 17 9 1 7 9 10 16 19 18 18 20 18 17 15 14 13 15 17 16 16 16 14 15 15 17 18 25 29 31 33 37 39 36 37 36
3 2 3 2 2 1 3 1 4 10 12 14 15 16 17 14 7 10 11 13 17 18 17 15 17 20 18 16 14 13 13 16 17 16 16 17 16 16 17 20 21 26 28 30 32 31 32 37 36
6 3 5 3 2 2 1 4 3 5 11 13 15 16 15 16 14 11 12 14 19 19 18 15 16 17 15 15 16 14 13 15 17 18 17 16 18 20 22 22 24 27 28 29 32 34 29 30 32